GFSNE_sfc_rhum_000.txt.gz
RH
83 84 82 77 73 74 74 74 80 86 77 67 72 67 60 58 67 71 70 80 79 78 74 70 74 70 68 66 64 65 63 62 60 59 58 58 56 55
73 77 79 78 76 76 77 76 76 82 88 67 68 82 74 78 87 77 67 79 78 76 74 75 72 71 68 66 66 64 61 60 60 59 59 58 56 55
74 76 77 75 76 78 78 77 81 80 90 75 71 77 85 88 90 80 80 78 81 78 73 73 72 69 67 67 64 60 61 60 59 59 60 59 58 56
68 74 71 72 80 80 78 80 80 78 86 88 78 86 86 87 87 84 80 69 80 75 72 72 71 69 66 65 61 62 63 61 60 60 61 60 59 57
66 69 69 72 75 76 81 83 79 81 85 90 87 86 95 87 89 87 84 76 70 76 72 71 67 65 66 62 62 63 62 63 62 63 62 61 59 57
70 73 71 73 74 73 75 84 86 87 87 91 89 91 93 91 91 90 88 83 78 68 67 65 65 65 64 62 60 60 62 64 65 64 63 60 60 57
67 68 70 76 83 84 81 80 85 91 88 92 93 97 97 96 94 93 93 86 85 73 68 65 78 74 72 60 64 62 64 62 64 64 63 61 59 58
72 69 70 81 80 85 88 89 88 90 89 89 94 97 96 93 96 95 95 96 94 78 78 77 69 77 72 70 57 54 55 55 61 65 64 61 59 60
73 75 72 72 83 82 83 89 94 93 96 94 97 96 92 91 93 97 95 92 88 84 73 69 72 75 73 52 55 54 55 57 61 65 65 62 61 62
72 73 74 78 79 84 86 89 86 91 93 95 95 94 93 92 93 91 92 92 89 84 75 76 74 76 73 72 56 53 54 56 59 66 64 63 64 64
65 64 65 74 77 87 94 93 88 91 98 98 99 97 97 96 94 94 96 92 84 74 75 70 71 67 68 66 64 52 51 56 62 64 62 59 61 63
67 67 76 78 80 82 90 95 97 93 99 100 99 98 98 97 92 90 89 88 95 91 84 75 72 68 74 67 67 67 66 54 50 51 51 53 55 73
58 63 67 79 83 84 85 91 95 93 98 99 99 98 98 98 97 96 94 90 95 92 80 85 96 91 84 87 72 68 70 68 69 65 54 50 50 58
65 62 67 76 84 87 89 89 92 96 99 98 98 96 95 96 98 98 98 95 91 89 76 91 96 96 98 93 88 72 75 75 76 70 68 58 51 51
65 69 78 84 87 88 89 90 94 99 98 98 97 95 94 97 98 98 97 96 94 89 86 93 94 96 97 98 97 98 86 79 74 75 76 71 67 66
72 72 81 87 89 94 95 96 100 98 97 97 98 98 98 97 96 93 94 96 94 95 93 94 95 97 99 98 98 96 95 95 85 80 75 68 69 70
78 77 86 90 94 96 98 98 99 99 99 98 97 96 95 94 95 94 93 96 93 97 100 99 98 96 97 96 94 89 90 90 84 80 70 66 64 67
71 82 96 96 97 97 99 99 100 98 98 98 98 97 96 95 95 97 96 92 87 92 96 100 99 96 96 91 86 90 94 90 81 71 69 69 65 65
78 88 96 97 97 97 99 100 99 99 98 98 98 98 98 97 97 96 93 84 91 96 98 98 99 99 100 99 90 68 94 86 83 78 70 69 69 66
77 86 96 97 97 98 98 100 98 98 98 97 97 97 97 97 97 96 88 91 93 98 98 99 99 100 99 97 100 94 66 74 67 72 72 71 69 69
75 79 89 97 97 98 99 99 99 98 98 97 97 97 97 97 97 87 87 81 87 97 98 98 97 87 99 99 98 89 79 66 70 85 89 95 88 81
73 80 92 97 97 98 99 99 99 98 98 97 97 97 97 97 87 87 89 93 94 97 97 98 98 99 100 100 97 93 90 81 72 74 84 94 96 96
78 85 96 97 97 98 99 99 99 98 98 98 98 97 97 90 86 88 92 91 91 95 95 94 96 98 98 98 86 92 89 90 90 90 86 80 89 89

GFSNE_sfc_rhum_003.txt.gz
RH
79 82 84 82 84 82 82 81 86 94 79 63 67 70 63 60 62 61 62 68 81 79 79 77 78 80 81 78 72 69 68 66 66 65 63 60 61 60
76 82 80 80 83 85 85 83 85 91 95 69 64 68 79 74 72 68 69 83 85 84 83 82 83 84 84 80 72 70 68 67 65 63 61 61 61 59
67 73 77 78 82 80 82 84 89 89 94 80 70 67 90 82 88 89 86 82 85 87 84 86 86 88 84 78 75 70 69 66 64 63 62 62 62 59
65 73 76 72 80 80 84 85 83 87 91 90 80 78 90 91 84 89 86 81 86 85 84 84 88 88 82 78 74 72 68 65 64 63 63 63 62 61
71 76 76 77 79 79 82 85 83 81 85 90 88 81 85 93 91 87 88 89 86 86 87 88 86 86 84 79 73 72 67 67 67 65 64 64 63 61
70 74 73 77 80 79 81 83 83 87 86 86 89 91 88 96 91 91 96 92 91 82 86 88 84 84 83 79 76 69 68 68 67 66 65 64 63 62
79 73 71 77 86 83 84 86 90 90 90 88 86 86 94 99 98 96 95 93 94 92 93 94 91 92 89 78 80 78 67 66 66 67 66 65 62 62
62 63 69 77 76 82 86 90 93 94 91 90 88 89 87 94 96 96 95 99 99 94 94 97 94 96 89 89 77 67 66 68 67 66 66 64 62 62
68 66 72 60 65 67 75 80 83 87 90 96 96 92 93 91 94 94 95 94 93 99 93 97 96 96 92 74 68 60 60 61 60 63 64 65 64 62
65 66 71 61 67 78 82 84 84 83 83 88 89 87 89 92 94 94 92 98 98 99 96 97 96 94 86 80 68 58 59 59 60 62 64 66 64 62
57 68 52 57 66 74 80 87 84 84 79 83 94 97 98 98 98 99 99 99 97 96 97 95 95 95 91 77 70 58 58 58 59 59 64 65 65 65
67 57 61 62 69 73 74 84 94 86 84 85 90 89 97 96 98 97 96 98 98 97 98 95 94 93 88 74 66 66 68 57 57 63 64 61 59 76
66 69 63 67 75 76 81 85 91 89 92 95 96 99 99 99 99 99 98 97 98 100 96 96 97 91 78 80 69 69 72 68 68 68 57 55 53 59
71 69 66 73 73 81 83 86 87 89 94 97 99 99 99 99 100 100 100 99 98 98 99 98 97 94 94 87 72 76 77 76 77 72 72 63 57 54
65 68 74 71 77 82 81 85 90 97 97 99 99 99 100 100 98 98 98 98 98 98 97 97 93 95 92 89 91 94 83 79 80 84 87 82 76 71
66 70 68 65 77 82 84 86 95 98 99 99 100 100 99 99 98 98 97 98 96 98 97 91 92 93 98 99 96 96 95 93 90 90 84 79 75 73
68 68 65 69 82 87 96 92 94 97 99 99 99 98 98 98 97 98 97 98 97 97 98 98 96 94 97 96 100 95 91 97 96 93 88 82 73 69
74 73 74 77 84 91 94 96 96 97 98 99 99 98 97 97 97 98 97 98 97 94 99 99 99 94 93 89 89 91 93 95 92 88 80 78 71 68
76 84 84 87 82 96 96 97 97 97 99 99 99 98 98 97 97 97 97 97 96 95 99 99 98 98 98 88 87 76 92 93 92 91 83 81 76 71
78 84 88 90 86 96 97 97 97 96 98 98 98 98 98 97 97 97 97 97 94 98 99 100 100 100 94 92 96 92 72 87 72 70 70 73 70 70
83 85 88 86 90 96 97 97 98 97 98 98 98 98 98 98 97 97 95 85 90 98 100 100 98 87 100 98 96 90 83 68 73 89 91 92 87 82
84 86 84 86 89 93 98 98 97 98 98 98 98 98 98 98 97 94 95 96 98 98 97 98 99 100 100 99 97 96 91 83 79 75 79 88 94 97
79 82 89 88 81 92 98 98 97 98 99 98 98 98 98 97 93 94 95 95 94 96 97 94 97 100 99 98 94 98 97 94 98 97 93 76 80 83

GFSNE_sfc_rhum_006.txt.gz
RH
79 84 86 82 83 85 86 87 92 95 84 73 78 61 61 64 66 63 63 69 76 76 77 74 72 74 74 77 79 81 80 79 77 72 71 71 69 65
67 72 74 76 79 85 90 88 87 91 94 73 68 74 74 78 74 73 70 76 75 77 77 80 78 77 77 79 81 85 86 81 73 72 72 69 67 60
70 69 75 76 81 82 86 86 88 88 92 76 76 74 85 90 84 82 76 73 74 78 77 79 82 82 82 84 88 87 83 76 74 76 70 68 62 62
58 67 73 72 81 81 83 84 85 85 91 89 79 81 83 83 86 84 85 82 82 80 84 83 83 87 86 86 90 89 84 82 77 74 69 63 62 63
61 72 80 82 79 79 83 85 84 82 86 84 84 82 85 85 93 93 89 90 91 90 87 88 87 89 88 90 90 88 89 86 82 76 68 64 64 64
75 85 79 66 68 78 83 85 83 85 84 85 86 82 81 80 95 96 97 96 93 91 90 88 89 91 92 94 95 93 93 88 80 74 69 66 66 65
76 59 62 68 81 82 67 67 77 86 86 88 88 87 88 87 92 93 97 94 97 96 98 94 97 98 98 96 95 95 90 86 86 81 71 67 66 66
49 48 58 62 71 60 62 71 78 88 91 92 91 90 87 88 88 91 93 97 98 98 98 96 98 98 98 97 93 93 91 89 86 76 69 66 66 66
41 44 49 55 64 51 60 68 69 74 80 87 93 87 89 82 89 94 91 96 93 97 97 98 99 98 99 98 94 92 90 88 80 73 69 68 67 65
47 47 58 70 62 64 66 71 69 72 73 76 85 84 83 86 90 94 96 97 99 99 95 99 99 98 98 98 93 92 88 83 81 72 68 68 66 65
50 52 64 68 68 68 69 76 78 77 73 78 83 85 86 87 88 95 98 99 99 99 99 96 99 98 99 99 97 92 89 84 72 66 65 66 66 65
55 56 68 65 66 66 69 78 88 83 84 84 85 85 87 90 94 98 97 99 100 98 98 96 98 96 97 98 99 100 94 74 63 63 64 64 66 82
64 68 64 66 66 70 71 79 87 82 84 89 95 95 95 98 97 99 99 100 100 100 98 96 98 97 97 96 96 94 69 67 71 66 61 65 65 72
74 66 65 68 75 76 70 78 80 83 87 91 97 96 97 97 99 100 100 100 99 99 98 100 98 98 97 95 90 71 72 68 64 64 65 61 61 59
63 70 66 72 66 67 69 75 81 89 94 95 97 98 99 99 99 99 99 98 98 98 98 98 96 98 97 94 86 79 69 72 79 76 79 77 74 70
74 62 70 62 63 64 70 74 83 90 97 97 97 97 98 99 98 99 98 98 97 97 98 98 97 97 95 90 86 89 91 77 88 91 85 79 75 73
59 71 73 71 76 78 76 79 83 88 97 97 98 97 98 98 98 98 98 98 97 97 97 97 94 92 92 95 98 90 91 93 90 93 90 83 79 75
66 77 82 82 85 82 82 88 84 90 97 97 96 97 98 98 98 98 98 98 96 96 96 96 97 94 87 84 86 90 94 94 93 91 88 86 80 76
74 85 85 83 84 84 84 93 91 92 98 97 97 97 98 98 98 98 98 97 97 96 97 97 98 96 91 81 88 79 90 93 91 91 87 84 80 76
79 83 83 82 82 91 89 90 90 94 96 97 97 98 98 98 98 98 97 97 95 96 99 99 99 99 90 86 94 93 80 97 84 72 72 81 78 68
80 79 80 80 84 94 84 89 91 96 96 97 97 98 98 98 98 98 97 91 90 98 100 100 100 92 100 98 94 89 84 68 72 84 92 86 83 88
80 82 80 80 91 87 88 90 94 96 96 97 98 98 98 98 97 97 93 94 93 93 98 100 100 100 100 98 97 96 94 86 79 75 76 81 95 99
85 86 84 88 90 86 89 92 95 96 97 98 98 98 98 97 95 94 94 92 92 95 95 96 98 99 99 99 96 98 98 97 98 98 88 78 77 79

GFSNE_sfc_rhum_009.txt.gz
RH
82 88 89 78 80 85 86 88 91 94 77 64 70 62 75 77 77 72 73 76 80 78 81 81 78 77 75 73 74 74 75 78 79 83 84 81 78 72
66 68 68 71 78 86 91 88 88 92 93 72 69 75 79 79 82 79 73 80 79 84 83 84 84 83 80 78 77 77 76 78 78 82 84 79 78 74
55 63 67 71 84 85 82 82 84 88 93 76 73 73 80 84 81 90 88 84 78 81 82 84 86 88 86 84 83 80 79 79 77 80 83 81 78 77
58 64 70 76 83 79 75 77 85 85 91 92 78 77 80 75 76 85 86 88 88 81 81 83 84 85 86 88 84 84 82 82 79 82 84 83 79 80
53 62 82 70 78 67 74 87 82 66 74 82 86 79 76 77 82 81 87 91 92 90 88 87 86 86 90 93 88 87 88 86 88 87 85 88 88 79
60 76 60 59 66 66 76 70 60 76 83 84 81 81 78 76 82 92 92 92 96 91 91 90 88 88 93 95 92 90 91 92 93 94 94 92 86 79
38 42 42 54 58 65 71 71 69 77 84 82 82 80 80 81 83 84 87 83 85 91 93 94 93 94 94 92 90 96 95 95 94 95 92 91 90 85
36 36 47 53 51 67 67 66 68 75 81 83 82 84 83 82 84 89 90 93 94 89 97 96 94 96 93 94 91 95 96 95 95 94 92 90 88 85
49 52 52 48 62 72 70 69 71 68 68 74 84 85 84 80 81 87 86 90 96 90 98 96 98 98 93 97 94 96 96 95 95 93 91 89 85 79
52 54 57 62 67 66 65 60 69 69 71 70 79 81 82 80 88 89 90 91 92 93 97 98 96 98 99 99 97 95 94 92 91 91 89 86 85 84
56 57 64 63 64 62 63 71 71 70 63 74 77 78 79 79 82 91 90 95 95 97 99 98 100 99 99 99 99 95 92 90 90 88 89 92 87 78
79 76 67 63 63 64 63 72 93 95 89 84 82 81 78 81 84 94 98 98 98 98 98 99 99 96 98 98 99 98 96 89 91 95 95 88 79 77
84 68 64 67 71 62 65 73 87 77 82 86 88 85 84 86 85 92 96 99 98 98 95 98 99 99 97 96 97 99 99 98 98 97 88 77 70 78
66 72 71 62 62 62 61 62 61 70 81 89 89 90 90 92 93 98 98 99 99 99 99 100 98 97 98 97 96 96 96 97 97 83 78 71 69 74
74 71 62 62 64 64 67 68 72 80 97 95 94 93 95 98 99 98 99 99 98 98 98 99 99 98 98 97 95 96 95 93 76 71 69 71 73 74
93 61 60 65 68 68 73 74 79 80 85 93 95 96 95 91 96 98 98 99 98 97 97 98 98 98 97 96 95 96 93 89 81 75 72 76 73 67
60 64 65 73 78 73 74 76 79 78 85 85 96 96 94 91 94 98 98 98 98 97 97 97 97 96 95 95 95 89 85 83 79 84 79 79 78 76
62 72 79 80 81 80 82 80 82 81 84 92 96 96 96 96 97 98 98 98 97 97 97 97 97 95 91 86 81 82 84 86 89 87 83 79 77 78
74 84 82 81 84 84 83 89 90 84 92 94 97 97 97 97 97 98 98 97 97 96 97 97 96 90 81 78 77 73 87 88 88 93 89 85 82 77
83 84 82 84 85 85 86 91 90 88 93 94 96 96 97 97 98 98 98 97 96 96 96 96 95 96 88 83 86 89 77 96 93 87 83 86 80 66
83 80 80 87 87 86 90 90 91 93 94 95 96 97 97 98 98 98 97 94 91 95 97 99 98 95 99 98 88 88 86 76 80 86 91 88 85 88
78 82 81 82 86 90 90 91 93 94 94 96 97 97 98 98 98 97 95 94 92 94 97 99 98 99 99 95 95 96 96 93 76 73 72 78 95 98
84 85 87 84 87 89 88 92 94 94 95 97 97 97 97 97 95 94 92 90 89 89 92 96 97 98 99 98 97 99 97 97 99 98 90 80 81 84

GFSNE_sfc_rhum_012.txt.gz
RH
86 87 74 71 76 80 86 92 92 91 78 65 70 64 76 74 73 74 83 82 82 82 82 83 81 83 86 88 80 79 78 77 76 77 82 82 80 82
45 60 65 70 75 83 93 87 83 87 88 63 62 67 71 69 70 74 72 80 82 83 82 82 84 85 86 90 91 87 81 79 78 78 78 78 80 80
46 52 61 65 79 78 84 74 73 84 94 75 61 56 64 74 76 77 74 73 75 82 86 85 85 85 86 87 89 93 93 88 84 81 79 78 77 81
50 60 66 67 65 74 78 66 77 86 77 81 64 66 74 70 72 77 72 72 76 76 80 82 86 86 87 87 88 89 92 95 92 87 82 79 78 85
57 52 41 53 53 55 57 63 70 68 77 81 80 76 73 70 78 77 73 72 71 79 80 87 88 86 89 88 88 88 88 92 96 95 93 85 80 87
47 43 38 41 47 57 54 60 73 82 80 84 82 82 78 74 80 82 78 76 76 67 76 76 80 86 88 88 89 90 92 96 94 93 93 90 88 90
46 44 48 56 59 56 59 67 75 79 75 85 87 78 78 79 84 81 84 79 78 74 81 82 83 90 92 90 90 90 92 94 93 91 91 91 91 94
54 52 52 58 58 64 64 62 61 67 68 76 84 77 73 76 81 85 89 88 89 74 86 86 81 88 84 87 86 88 89 91 92 94 92 92 96 97
57 59 58 52 66 68 67 64 64 62 62 66 75 76 78 77 85 88 83 84 91 80 83 86 84 89 86 79 85 88 90 91 93 93 95 97 96 95
60 62 65 78 70 62 63 80 88 65 64 66 76 87 83 86 84 80 88 90 89 91 87 96 87 92 92 94 93 93 93 91 90 93 96 95 94 93
61 65 81 68 64 65 73 76 67 81 68 68 72 72 71 69 71 80 96 98 96 96 92 97 94 93 99 99 98 90 91 92 96 95 92 93 92 90
74 78 64 60 66 65 57 66 87 73 67 77 82 81 74 72 72 80 98 99 98 97 98 100 100 98 99 96 99 99 99 95 93 91 89 89 89 96
78 61 60 75 74 60 60 68 71 62 81 83 81 84 80 81 88 96 98 99 98 97 86 98 100 99 99 95 96 98 100 98 97 94 90 91 94 96
62 59 74 84 61 61 65 67 66 68 77 85 87 88 86 86 87 94 93 98 98 98 97 97 98 99 98 97 97 97 98 99 98 98 98 96 96 94
59 86 72 63 61 66 67 67 68 74 82 92 90 91 86 87 95 87 91 95 98 98 98 98 98 99 99 98 96 96 97 96 98 98 98 98 98 92
89 90 65 61 64 66 68 70 73 77 81 92 93 89 85 88 92 89 97 96 99 98 98 98 98 98 98 97 97 96 97 96 96 97 96 93 82 83
62 59 64 68 73 71 71 73 76 77 91 89 89 89 88 93 93 89 97 98 98 98 97 97 97 97 97 98 96 96 95 95 95 94 92 86 74 65
54 63 83 79 78 77 81 80 80 80 84 87 91 92 92 96 93 94 98 98 98 97 97 97 97 96 94 94 95 94 93 90 92 82 72 73 74 73
68 88 84 79 79 81 86 86 88 84 89 94 94 95 94 96 96 96 98 98 97 96 96 97 96 96 91 92 88 78 83 83 81 78 74 70 67 69
80 86 82 80 83 89 86 88 89 90 92 94 94 94 97 97 97 98 98 97 96 96 96 97 97 97 93 90 90 88 73 78 80 84 88 86 78 65
78 81 81 83 89 87 86 88 91 94 94 94 94 96 96 97 97 98 98 94 92 96 96 96 98 92 97 94 86 84 83 77 73 85 89 90 86 90
79 83 84 86 88 87 89 92 94 93 94 94 94 97 96 97 97 96 95 96 95 96 96 97 96 96 96 92 96 96 97 93 79 66 69 80 94 98
87 85 88 88 87 88 92 93 94 94 94 95 96 97 96 97 96 95 94 93 92 90 91 96 96 97 98 97 97 99 97 97 95 97 98 73 81 97

GFSNE_sfc_rhum_018.txt.gz
RH
27 31 31 32 36 38 42 52 62 67 56 44 39 26 25 28 36 42 40 49 57 54 54 58 65 71 75 76 74 77 81 84 84 84 82 85 88 92
26 30 32 33 36 35 37 35 39 45 52 36 35 32 31 29 42 41 36 55 57 54 56 59 62 69 70 72 78 79 80 84 83 80 79 80 81 82
29 31 34 37 35 32 34 34 36 40 52 45 41 38 37 40 37 36 39 37 39 51 54 60 61 67 71 75 72 72 78 79 81 82 81 82 83 84
31 33 34 29 36 34 34 38 42 42 54 67 48 43 44 40 40 42 36 32 37 44 52 54 59 63 69 71 77 75 76 75 81 86 84 82 84 84
32 35 36 37 37 38 40 43 44 45 54 60 58 50 49 44 45 44 44 41 33 51 52 53 54 55 61 69 71 70 76 82 82 82 90 90 89 87
36 38 37 38 40 43 44 45 54 57 53 60 66 61 55 51 49 52 50 46 51 43 51 55 60 65 64 63 70 73 81 76 86 89 90 92 93 89
38 36 37 45 55 52 49 58 63 59 66 70 71 60 53 52 55 53 67 57 56 59 62 62 66 65 61 60 65 70 72 72 78 82 87 87 88 89
40 37 36 44 44 58 62 58 56 65 71 78 65 59 56 57 61 59 68 76 80 61 74 65 57 60 59 57 64 72 77 77 77 80 85 85 86 86
38 38 37 33 49 54 53 56 61 83 76 57 61 63 70 60 63 75 83 84 81 62 66 76 64 74 65 66 77 76 78 83 81 82 83 85 84 86
38 39 39 46 54 50 48 63 79 52 48 43 52 59 69 74 69 68 77 81 78 71 71 96 76 81 70 69 75 83 80 80 86 86 86 85 80 81
38 39 50 51 52 56 67 94 66 54 45 55 62 63 61 62 63 72 92 89 88 78 77 86 86 94 97 84 70 67 73 84 84 85 85 84 85 84
47 50 55 49 56 68 72 51 73 58 58 63 57 56 59 60 65 69 88 96 93 90 81 95 90 86 88 79 92 86 82 72 82 85 91 92 88 91
64 54 46 58 67 59 56 50 59 55 60 60 60 64 64 65 69 73 78 96 95 93 79 88 96 91 93 87 78 83 82 88 94 97 93 94 93 94
59 50 55 70 56 56 55 61 60 61 59 68 74 74 76 78 80 82 82 86 88 95 89 100 98 96 92 88 83 81 87 98 99 98 96 94 92 90
49 64 69 56 56 54 61 60 60 61 70 79 83 84 82 83 86 86 88 89 89 91 100 100 99 96 95 92 88 86 99 99 100 98 98 98 98 94
77 69 52 52 54 56 53 53 57 63 71 82 87 86 83 83 84 83 93 90 94 92 100 100 98 96 93 92 93 94 98 98 99 98 98 98 98 97
62 50 46 47 57 55 55 58 61 64 79 85 89 88 84 84 87 88 92 94 96 95 95 95 97 97 96 97 94 94 93 96 99 98 97 98 98 97
53 51 57 65 67 60 62 64 68 78 86 89 88 89 92 93 93 93 96 97 95 94 94 94 94 94 94 94 95 92 92 94 98 98 96 91 96 98
55 66 70 69 68 69 72 77 88 88 94 93 93 93 93 93 95 95 95 95 94 94 93 92 88 93 94 92 91 95 90 95 95 93 88 79 88 98
65 72 72 70 71 75 78 89 90 90 91 92 93 94 95 96 96 95 95 95 87 84 85 87 90 94 95 95 92 94 96 94 88 90 92 92 95 95
68 69 69 72 75 78 87 91 92 93 93 94 93 94 93 94 91 88 84 78 78 81 82 86 91 80 91 92 91 92 94 95 91 88 94 91 89 90
66 72 72 75 78 88 92 92 93 92 93 92 91 92 92 88 83 75 68 76 78 77 79 85 86 85 83 78 84 86 83 83 79 76 77 73 68 76
73 74 78 79 85 91 93 93 93 92 92 93 92 91 88 84 70 66 78 89 91 91 91 91 90 83 81 81 83 83 85 77 74 86 91 85 72 67

GFSNE_sfc_rhum_021.txt.gz
RH
30 33 33 34 37 37 42 45 50 55 47 38 38 31 35 34 39 36 36 50 53 51 51 53 58 58 55 58 63 65 64 59 65 70 72 75 76 81
27 30 32 33 34 40 44 40 41 46 52 39 39 39 39 37 40 39 37 53 52 48 48 56 56 53 55 62 61 62 62 63 66 63 66 69 73 77
30 32 34 33 36 36 40 41 43 45 53 47 42 46 46 44 42 42 43 42 41 48 47 49 50 54 55 58 61 59 60 61 64 71 68 71 76 77
31 34 35 29 39 40 40 43 45 45 52 60 55 52 47 47 48 49 41 36 41 46 51 49 51 50 52 57 62 66 67 67 67 62 67 70 71 77
33 36 37 39 40 42 43 48 48 46 59 66 63 52 53 54 55 45 39 41 37 49 49 52 52 54 58 59 65 67 69 70 72 71 74 77 79 73
38 39 39 39 40 43 45 50 55 65 66 67 62 64 63 58 52 52 52 53 54 40 46 50 54 55 57 59 67 76 73 69 62 68 71 76 87 88
41 37 37 45 50 47 42 53 63 75 63 67 78 79 87 62 60 55 61 58 57 56 58 58 60 65 64 58 58 63 64 62 64 69 71 72 78 84
44 39 36 46 42 48 53 56 57 60 64 78 87 93 69 57 56 63 70 78 84 60 68 66 59 62 59 58 58 61 62 64 66 73 76 76 80 83
41 40 37 32 46 50 57 59 58 60 71 71 72 72 62 55 66 81 89 85 76 63 70 80 68 77 68 60 62 61 63 68 72 72 74 77 85 83
41 40 41 47 53 55 52 75 78 72 61 46 54 53 57 66 83 72 69 79 82 75 72 88 86 80 73 68 69 67 67 66 68 68 75 84 87 87
42 43 48 51 56 59 69 92 64 54 49 56 58 59 58 59 60 65 91 92 88 82 77 83 87 96 83 81 70 64 87 87 82 72 74 79 80 82
52 56 59 51 58 70 68 54 68 59 73 65 58 56 57 60 63 67 83 96 92 93 78 88 88 88 93 85 88 83 74 67 73 71 79 80 79 83
70 60 52 58 68 69 55 51 58 65 63 60 60 64 66 67 69 71 76 93 95 94 80 83 95 93 92 93 81 82 83 82 85 91 94 96 92 92
65 56 53 84 63 54 54 57 59 59 59 67 75 78 78 79 80 81 81 84 85 90 85 90 97 96 96 94 90 83 84 84 99 98 98 96 91 91
52 59 88 58 54 52 56 58 59 62 69 86 89 85 83 84 85 85 87 87 86 86 87 91 97 98 98 96 93 89 91 97 99 100 98 98 99 97
76 88 54 53 54 55 56 56 59 63 70 85 91 87 83 86 89 90 96 93 96 90 97 99 98 98 97 94 94 94 94 99 99 100 98 98 98 97
65 54 52 53 61 60 59 61 64 67 89 87 90 90 89 89 91 92 94 96 97 97 95 95 96 98 98 98 97 97 99 98 99 100 98 98 98 98
55 56 62 68 70 65 66 67 74 80 85 90 91 92 94 94 94 93 96 98 97 96 96 96 96 94 97 98 93 98 99 99 100 100 99 97 98 99
58 69 72 71 71 71 74 85 91 86 92 94 94 94 94 94 93 94 90 93 90 89 92 95 96 96 97 96 96 97 99 99 98 96 98 98 98 99
68 73 74 72 73 77 88 92 91 88 91 93 93 91 92 94 94 90 87 88 88 88 88 92 95 96 97 97 97 97 98 98 94 96 98 98 98 98
70 73 72 74 77 89 92 92 93 93 92 93 92 93 94 96 95 95 95 92 93 89 93 95 96 80 97 97 95 95 97 100 96 94 94 92 97 98
72 74 74 77 90 93 93 93 92 90 91 92 93 94 94 96 96 95 94 95 96 97 97 98 92 95 92 95 96 96 96 97 99 98 86 81 96 97
74 75 79 87 92 93 93 91 90 91 90 92 94 94 95 94 93 95 95 94 96 97 97 97 93 93 88 88 94 96 97 97 96 95 91 67 74 84

GFSNE_sfc_rhum_024.txt.gz
RH
41 44 44 43 46 47 49 49 60 63 56 45 45 37 40 40 43 42 40 47 50 50 53 50 51 50 51 50 51 52 54 54 56 64 62 60 67 64
32 36 37 41 43 44 53 49 53 55 62 46 46 44 40 40 46 42 41 53 53 55 52 49 50 51 50 51 51 52 49 52 56 57 59 58 59 58
34 35 40 38 43 45 48 51 52 53 61 55 48 44 54 51 46 46 48 47 49 52 48 48 47 48 49 51 51 51 54 55 56 57 57 60 56 68
38 41 42 36 45 45 50 48 53 53 57 62 59 62 56 53 50 51 50 44 44 45 50 49 53 55 52 52 54 55 55 59 58 60 67 65 69 62
45 47 48 47 48 49 49 52 51 47 64 75 74 64 61 55 59 60 61 52 41 47 48 53 53 53 55 55 55 55 59 59 61 68 66 67 64 67
51 52 50 49 48 47 46 48 48 61 68 73 79 87 65 62 67 93 64 55 50 40 50 54 58 58 57 58 58 58 61 62 60 59 67 68 63 68
54 51 50 51 54 48 43 50 58 60 73 95 91 80 78 76 75 64 62 56 59 59 62 66 58 61 60 60 59 60 61 61 60 61 64 66 66 69
58 53 46 48 48 53 55 56 54 70 80 95 94 82 62 59 66 69 70 77 86 68 70 66 61 66 65 64 64 66 65 68 64 60 63 69 71 72
55 52 48 40 53 53 60 65 90 79 70 68 65 63 64 77 86 84 88 92 90 73 74 79 70 73 72 62 65 63 64 67 64 62 62 64 66 69
54 53 53 54 59 57 58 80 83 78 62 54 55 56 67 62 64 64 69 78 80 73 72 93 78 90 67 68 71 66 63 62 63 86 90 79 69 71
52 53 59 61 61 60 65 95 80 65 60 57 70 70 59 59 59 62 91 94 88 80 77 85 85 89 80 78 68 69 70 95 75 89 78 86 77 75
58 65 69 59 59 67 69 59 72 62 62 78 60 59 60 64 66 69 82 96 93 91 77 88 88 90 92 78 84 86 72 71 71 71 71 70 70 79
80 74 67 62 76 69 58 54 58 57 67 62 62 66 70 75 74 76 81 96 95 94 80 83 96 93 95 92 88 84 98 88 87 83 81 88 89 83
66 61 59 75 60 58 56 59 60 60 62 69 77 83 81 84 85 84 84 87 91 96 92 96 96 96 96 94 94 88 85 85 95 97 97 98 97 96
59 66 80 62 57 56 59 61 61 66 72 90 91 88 89 90 90 90 89 87 87 88 96 97 98 98 98 97 95 91 88 89 95 99 100 99 99 97
79 88 62 57 58 60 60 60 64 67 83 92 93 91 91 93 93 93 95 91 95 95 93 92 96 97 99 99 97 94 94 97 98 99 99 98 97 98
61 61 56 59 67 64 63 65 67 74 92 91 93 92 90 90 89 87 95 94 94 96 94 93 91 94 97 99 97 94 98 99 99 99 99 98 99 98
58 61 70 74 74 69 72 80 80 86 90 92 92 92 94 94 93 92 94 94 95 95 95 96 94 92 97 98 94 96 98 99 99 99 99 97 98 98
63 75 78 77 76 77 86 91 93 91 95 94 94 94 94 92 91 93 96 95 94 95 96 96 96 96 95 96 96 99 98 98 98 98 98 97 98 99
74 81 80 76 79 90 91 93 92 90 90 93 93 93 94 95 95 95 95 96 95 95 96 95 96 97 97 97 96 98 99 98 98 98 98 98 98 97
76 77 76 80 90 92 92 93 92 92 90 92 93 93 92 95 94 94 95 91 93 96 96 95 95 94 98 98 96 95 98 98 98 97 99 97 98 97
73 77 80 84 91 93 93 92 93 90 91 93 93 93 93 96 95 94 93 95 94 97 97 97 93 97 96 95 96 96 96 97 98 99 92 89 98 97
79 83 83 90 92 92 92 92 91 90 91 93 93 94 96 95 93 92 96 95 96 97 98 97 95 94 96 97 95 97 96 96 85 91 98 98 98 97

GFSNE_sfc_rhum_027.txt.gz
RH
45 50 50 41 49 53 56 52 60 70 59 50 50 42 47 45 44 42 47 51 52 53 53 53 54 55 53 52 51 51 52 51 51 53 56 53 51 54
39 45 43 43 46 48 56 62 56 60 71 50 48 46 43 40 50 48 45 53 55 54 55 54 54 62 52 52 52 51 54 55 55 53 54 50 54 60
47 44 49 47 51 51 53 54 59 61 64 54 48 46 51 57 51 51 53 48 48 57 58 58 57 55 53 53 51 63 56 52 54 57 62 66 67 66
50 55 52 46 56 55 54 55 57 54 60 62 56 63 64 57 56 62 50 44 57 73 59 56 55 53 53 52 54 54 54 54 54 54 54 54 55 63
56 58 57 58 60 59 57 55 54 48 60 75 85 68 62 73 74 64 73 70 62 52 52 53 53 53 55 57 59 58 55 56 57 56 58 57 58 66
59 61 57 60 60 56 52 52 52 60 60 64 68 86 73 70 81 71 57 53 58 47 51 54 59 59 61 58 58 58 59 60 60 59 57 58 64 67
61 56 56 58 57 53 49 53 57 64 83 95 83 90 87 66 62 59 63 64 70 64 64 62 67 71 60 61 61 63 63 64 64 65 67 63 62 68
62 55 56 57 56 58 59 60 59 65 76 90 96 87 68 64 64 65 76 92 90 67 74 80 66 66 64 64 66 64 67 65 60 62 61 68 67 71
59 59 56 48 60 63 67 66 68 76 81 75 73 73 72 65 74 95 93 90 86 73 72 81 69 71 67 58 63 66 63 61 63 71 73 71 63 61
61 59 60 63 70 62 61 68 90 88 68 60 63 62 72 76 64 62 69 80 84 73 69 89 76 78 67 65 69 67 65 70 82 80 76 82 71 71
56 59 66 65 64 60 66 97 87 78 56 58 71 67 60 61 61 71 93 94 88 79 73 83 84 86 82 77 68 70 70 70 72 88 81 72 72 73
70 75 67 58 59 76 74 66 76 60 70 81 58 59 61 63 69 73 90 96 93 92 74 89 92 90 93 80 82 82 83 76 71 71 74 69 69 70
79 67 62 64 92 61 60 55 59 61 66 63 64 66 68 71 70 76 89 97 95 94 80 87 95 94 95 92 89 87 88 84 88 82 75 77 74 74
66 63 66 85 60 59 59 63 64 64 62 71 78 81 80 86 88 90 92 94 94 96 94 97 97 97 96 93 92 94 88 85 89 93 95 91 85 84
65 73 74 61 60 60 64 65 65 69 86 91 88 87 88 91 93 92 90 88 91 90 90 98 98 97 97 95 95 94 91 90 97 98 97 98 98 97
79 71 59 59 62 63 62 61 65 77 87 92 92 88 88 92 94 93 95 91 96 88 82 91 98 98 96 96 98 94 91 97 95 97 99 100 99 98
60 59 57 63 70 66 64 66 71 75 88 87 92 92 90 91 92 90 94 95 95 95 93 89 88 88 94 97 98 94 96 96 98 99 99 99 99 98
60 63 73 76 76 70 73 79 78 81 86 90 90 91 94 94 94 92 92 96 96 94 95 96 95 91 94 95 96 96 97 98 99 100 100 98 98 98
67 78 80 78 78 79 84 90 91 86 89 90 93 94 94 92 90 92 94 94 93 95 96 97 96 97 96 96 95 99 98 98 99 98 98 98 98 98
75 80 81 79 81 89 90 92 92 88 88 92 94 93 94 95 94 94 94 95 96 95 94 93 96 97 98 97 97 98 99 98 98 99 98 98 98 97
76 78 77 83 89 90 90 90 89 92 92 93 93 94 93 94 94 93 94 87 92 95 95 95 97 95 98 97 96 95 97 98 98 98 99 97 97 97
75 80 82 85 89 92 92 91 93 91 92 92 93 93 93 93 96 95 93 95 95 97 98 96 97 97 96 95 97 96 97 98 97 97 97 98 98 98
83 86 86 89 91 92 91 92 91 91 90 94 93 92 92 95 95 95 95 96 97 98 98 96 96 96 96 97 93 96 96 97 97 97 98 97 97 97

GFSNE_sfc_rhum_030.txt.gz
RH
48 52 54 55 57 54 58 61 69 77 65 54 56 48 50 50 48 42 43 53 56 56 55 54 54 54 54 54 54 57 61 54 64 56 53 52 51 52
44 51 54 57 55 58 64 62 62 68 76 57 53 47 46 41 48 47 50 56 58 59 58 56 55 57 63 62 62 67 66 59 53 53 55 60 61 58
51 54 60 59 59 60 63 64 66 65 74 60 52 50 55 60 56 56 55 54 59 62 59 55 54 57 57 56 59 58 53 53 55 59 61 64 59 58
54 60 63 49 62 64 65 65 65 62 66 72 73 69 62 55 56 60 66 57 60 61 58 56 56 56 54 54 54 54 54 55 54 57 59 58 55 54
57 62 66 63 63 66 66 66 62 54 64 68 68 59 59 64 73 70 70 50 44 50 53 54 56 57 58 58 59 66 66 71 72 60 59 57 57 58
60 66 66 66 64 66 59 58 58 62 64 70 77 85 78 65 94 68 61 56 56 45 53 59 63 60 60 60 60 60 59 60 60 59 58 57 56 56
61 61 61 60 59 56 52 57 61 74 90 95 76 75 92 70 68 63 67 64 62 66 84 62 61 66 66 64 62 62 62 64 63 65 66 68 64 64
60 59 58 60 61 62 64 63 62 64 71 80 96 81 72 68 68 69 75 94 89 62 67 67 64 65 63 63 66 66 64 65 67 68 67 74 65 62
64 61 59 52 66 70 70 62 65 72 90 74 77 74 71 68 84 95 86 86 85 72 75 80 67 70 63 56 66 66 65 65 64 64 76 72 68 68
64 66 68 72 69 58 56 75 95 77 74 58 59 64 75 70 64 68 82 90 87 74 67 92 75 77 67 66 69 70 70 69 67 67 71 73 70 69
60 67 75 66 62 62 90 83 72 66 52 63 72 64 62 63 65 81 93 93 88 76 70 83 85 86 82 78 70 72 71 71 70 70 74 90 96 93
70 82 68 60 63 77 58 61 73 63 85 85 58 59 63 65 70 72 94 96 93 91 73 90 90 88 94 80 81 82 78 72 69 69 68 69 71 73
76 63 62 72 70 60 60 62 64 66 72 63 66 69 69 70 70 76 90 97 96 94 78 87 95 92 95 93 84 82 84 82 81 79 77 82 74 72
66 71 78 70 61 62 63 67 67 66 65 75 80 80 81 86 87 88 90 93 93 96 93 96 96 97 96 93 89 81 86 84 85 93 95 94 96 95
73 67 67 63 63 64 67 68 66 69 79 89 88 87 87 89 91 91 89 87 88 89 95 97 98 96 97 95 94 89 90 87 89 97 98 97 96 96
71 70 62 62 65 66 63 62 65 68 77 89 91 86 84 86 87 90 95 91 95 88 82 89 96 98 96 93 96 92 93 97 92 96 98 98 98 97
61 61 60 65 71 67 66 68 69 70 83 84 89 90 87 86 88 85 93 94 95 95 93 87 89 91 93 97 96 94 94 95 97 99 99 99 100 98
64 67 75 78 78 74 76 78 77 79 83 89 89 89 92 93 92 89 89 94 96 93 96 94 95 91 94 91 94 96 97 98 98 99 98 98 97 98
71 80 83 81 82 82 86 88 89 84 86 89 90 94 94 92 90 91 90 93 92 95 95 96 96 97 95 96 91 92 98 98 98 98 98 98 98 98
78 83 85 84 85 89 90 90 90 88 88 90 94 92 94 95 94 93 93 95 95 95 94 94 96 97 98 97 97 96 98 98 98 98 98 98 98 86
80 82 81 86 89 89 89 90 90 91 92 94 92 93 94 95 93 91 95 89 90 95 94 94 97 97 98 95 94 95 98 98 98 98 98 98 98 95
80 85 84 86 89 92 92 92 92 90 92 92 92 93 93 94 95 94 95 96 95 96 96 95 96 96 94 96 97 97 98 98 97 97 97 97 98 98
88 87 87 89 90 90 91 92 91 92 92 94 93 93 94 95 92 95 96 95 97 98 98 94 96 96 96 97 94 97 96 97 97 96 97 97 97 97

GFSNE_sfc_rhum_033.txt.gz
RH
50 54 56 59 63 67 67 69 76 82 71 57 61 52 53 51 51 46 45 53 56 57 58 57 55 56 58 60 60 65 62 62 62 63 62 66 63 58
47 54 58 62 66 70 74 71 72 78 86 62 59 55 51 47 52 50 50 57 60 60 57 57 58 57 56 56 55 56 55 68 68 71 72 69 64 58
50 57 61 63 70 68 70 72 75 75 82 68 60 57 62 55 50 52 54 54 56 66 67 63 55 54 55 57 61 64 64 61 62 68 74 66 62 63
55 61 63 49 68 69 72 72 72 69 75 84 79 64 57 54 55 59 59 58 95 72 59 56 54 54 54 56 63 66 63 63 62 61 59 59 61 65
60 63 62 67 71 69 68 70 72 61 73 77 72 64 64 66 71 77 82 66 47 52 55 57 59 59 59 63 64 63 66 68 67 68 67 74 74 70
61 65 66 69 70 69 62 61 66 68 69 76 78 79 71 80 86 65 59 56 57 48 55 60 64 63 61 61 60 59 60 62 62 61 60 61 59 59
63 63 62 63 60 57 54 58 62 72 83 82 78 91 79 68 65 64 66 64 68 73 82 65 59 59 60 63 62 63 64 64 63 63 64 66 66 68
68 64 65 62 64 64 65 63 60 62 81 97 88 80 71 68 67 69 84 90 84 62 67 73 66 65 64 64 66 67 66 65 66 75 77 74 72 72
71 66 63 54 67 76 74 64 76 88 69 71 74 72 70 68 94 94 89 91 85 70 75 90 70 71 64 56 67 68 68 67 66 67 71 75 72 70
71 71 72 70 80 62 66 97 79 70 63 57 60 67 83 71 63 69 86 91 84 69 64 94 74 76 67 65 71 71 72 70 68 68 70 70 70 70
69 67 76 73 64 64 77 77 64 63 55 63 76 66 63 66 68 85 92 93 86 73 68 80 82 85 80 76 67 72 70 69 64 63 65 69 77 76
76 80 66 60 63 73 59 62 76 65 86 86 59 62 66 67 70 72 95 96 93 91 72 89 90 89 93 76 79 78 73 72 69 68 69 68 66 69
60 67 66 70 71 61 62 63 67 70 70 65 68 70 70 69 69 74 87 97 95 94 78 87 95 91 93 91 81 80 79 78 77 73 73 72 70 68
66 69 71 68 63 63 64 69 68 66 66 72 80 80 81 84 84 85 85 89 93 97 93 96 96 96 95 92 88 80 82 83 86 92 91 92 94 96
64 63 66 65 64 65 69 69 68 70 77 90 88 87 86 87 88 87 86 85 86 86 90 95 97 95 96 95 94 89 93 88 89 96 96 96 94 94
67 69 64 63 66 68 65 63 67 69 76 88 90 86 85 87 88 86 91 89 94 86 81 84 96 98 96 93 96 94 93 97 92 95 96 97 98 96
63 64 63 67 73 69 68 68 70 71 84 85 90 90 87 87 87 85 91 93 94 92 90 87 86 89 93 96 96 94 95 96 97 98 99 98 100 98
67 71 77 79 80 76 78 78 77 81 84 90 90 90 92 92 91 88 89 93 95 92 94 92 93 91 83 90 90 96 96 98 98 98 99 99 98 99
75 82 84 83 84 85 86 89 91 85 89 92 92 93 94 92 90 91 91 92 91 91 94 95 95 96 94 94 90 77 98 98 98 97 98 98 98 99
80 85 87 85 86 90 90 92 91 88 89 90 94 92 93 95 94 93 92 94 95 94 93 89 93 96 98 97 97 94 99 98 98 98 98 98 94 92
82 84 82 86 89 90 90 90 90 92 92 94 92 93 93 95 92 91 93 89 90 94 94 93 96 96 97 92 92 94 97 98 98 98 97 99 90 90
81 86 84 87 90 92 92 91 92 90 92 92 91 92 93 94 94 94 93 95 94 96 96 93 93 95 95 96 97 97 96 96 96 96 97 97 97 97
87 87 88 89 90 91 92 91 91 92 93 94 93 94 94 94 91 92 94 95 96 96 95 94 94 96 95 96 95 96 95 95 97 96 97 98 97 97

GFSNE_sfc_rhum_036.txt.gz
RH
51 54 58 62 66 70 73 76 77 81 65 55 68 53 56 54 56 49 50 57 58 58 57 56 56 56 58 58 61 67 67 64 69 68 65 63 64 61
48 54 58 64 67 73 78 77 78 80 86 59 61 58 55 51 58 51 48 56 59 61 60 58 58 58 60 63 56 57 56 63 64 67 67 63 69 70
55 58 62 63 70 74 78 74 76 78 86 71 62 58 65 61 54 54 56 54 56 65 68 64 60 59 57 57 58 62 63 64 66 67 69 68 70 70
59 63 65 50 67 71 73 74 77 73 79 87 77 66 62 59 61 65 64 65 83 67 60 59 57 56 56 57 60 67 64 60 63 64 65 67 63 65
64 67 68 70 72 75 74 75 74 67 76 77 72 66 66 65 78 75 64 56 45 52 57 59 60 60 61 66 70 72 69 72 65 64 65 66 69 69
66 68 69 70 73 73 72 67 61 67 68 75 73 78 91 73 68 63 61 57 58 49 59 63 64 63 62 62 62 60 60 61 62 62 62 65 65 67
70 67 67 68 64 61 57 62 64 74 79 94 91 79 76 70 68 63 66 66 76 70 63 61 62 61 60 64 64 64 65 66 65 66 66 68 67 68
73 68 71 67 69 66 66 64 62 70 96 86 84 79 71 69 66 71 91 89 86 63 67 75 69 68 65 64 67 67 66 65 65 66 71 74 72 73
75 72 66 57 69 73 78 73 76 79 66 67 72 71 71 69 94 93 86 89 86 72 75 87 69 70 62 55 66 67 68 68 68 68 68 71 72 70
74 75 77 74 78 67 65 97 88 73 62 58 63 67 85 74 66 70 88 91 84 69 63 91 70 73 64 62 69 70 70 69 68 69 71 70 72 67
68 75 78 71 66 66 84 84 67 64 58 64 74 68 65 67 69 80 91 92 87 74 68 79 81 84 78 73 65 71 69 67 65 68 70 75 77 74
66 66 64 62 64 75 60 64 76 66 82 87 60 63 66 68 71 71 84 96 93 91 71 91 90 89 92 73 79 73 68 72 72 72 73 71 70 69
60 62 67 66 66 62 62 65 68 69 70 67 68 69 70 71 71 76 82 96 95 93 76 87 95 91 94 92 79 79 77 74 74 75 76 76 80 76
64 70 64 66 64 64 65 70 69 68 67 73 79 81 82 85 85 86 86 88 87 96 94 96 96 96 95 92 88 80 80 81 85 92 90 91 94 96
66 63 68 66 65 66 70 70 69 72 76 88 88 88 87 88 89 88 86 86 86 86 88 90 97 96 96 95 94 90 93 89 87 95 96 96 94 94
66 71 66 64 67 69 67 64 67 69 77 88 91 87 86 88 89 87 93 90 93 86 80 84 90 98 96 93 97 94 90 97 94 94 97 97 97 96
64 67 65 69 75 71 69 69 69 70 84 85 91 90 88 88 88 86 91 93 94 91 89 84 85 87 91 96 96 89 94 96 94 98 98 98 99 98
69 73 79 80 81 77 78 78 77 82 84 89 89 89 92 92 93 90 90 94 95 91 92 90 91 91 83 88 87 97 92 98 97 98 98 98 98 98
77 84 86 84 85 84 86 89 91 85 88 93 93 92 94 93 91 92 92 92 91 90 92 91 94 96 94 93 86 76 98 97 97 97 98 98 99 99
82 87 88 85 86 89 89 91 90 88 89 90 93 94 94 95 94 93 93 94 94 92 91 88 92 96 97 97 97 95 93 98 98 98 98 96 96 96
84 86 83 86 88 90 90 91 91 94 94 94 93 94 94 95 93 92 93 89 90 92 94 92 93 88 95 92 91 90 95 86 98 98 97 97 97 94
83 86 85 86 89 92 92 92 93 91 93 93 93 94 93 94 94 94 92 95 93 95 95 92 90 93 98 96 96 96 95 89 81 84 97 99 98 98
87 87 87 89 90 91 92 92 92 91 92 94 93 93 93 94 91 92 94 94 96 96 96 95 92 96 98 99 93 95 93 96 96 94 96 99 99 99

GFSNE_sfc_rhum_039.txt.gz
RH
37 39 40 41 44 45 47 49 54 56 51 37 38 35 40 42 45 41 42 54 59 61 61 60 59 58 62 64 64 62 63 66 68 71 68 68 67 70
38 40 41 43 45 47 50 50 52 57 63 43 45 44 43 41 47 44 42 57 61 63 62 59 58 58 58 62 63 62 62 61 62 66 65 64 64 61
43 44 47 46 48 47 50 52 54 54 62 55 49 46 47 46 43 44 49 49 50 60 60 61 60 59 59 59 62 63 64 66 64 66 66 67 70 74
47 49 49 44 50 48 49 52 56 54 61 70 59 54 47 47 49 56 50 42 48 52 59 59 60 60 60 60 60 62 62 64 64 66 68 67 66 69
50 52 52 50 49 50 53 57 58 56 63 69 61 54 55 60 57 49 44 42 38 52 58 60 62 63 64 64 64 62 62 62 65 62 61 64 67 67
53 53 52 52 53 56 58 58 59 60 58 65 67 82 66 54 59 56 52 49 50 45 57 59 62 62 63 64 64 63 63 63 63 63 63 66 68 71
54 51 50 56 63 60 55 57 57 65 73 82 88 66 68 59 55 53 57 58 64 56 56 52 50 52 55 62 62 65 66 67 67 67 69 68 67 66
54 50 51 62 62 64 64 64 63 66 91 89 82 70 56 54 56 61 80 80 79 53 57 61 55 55 53 52 62 66 66 66 66 68 71 76 73 69
52 52 52 50 61 60 67 69 68 89 70 66 62 58 61 58 86 93 82 82 78 62 66 73 55 56 51 46 63 66 68 68 68 69 70 71 73 71
54 54 56 57 59 62 58 90 88 62 52 50 55 59 75 76 62 64 76 80 73 60 55 84 59 61 54 54 67 69 69 69 69 69 70 71 70 70
54 54 57 53 61 61 74 88 58 53 53 61 71 70 65 66 67 74 87 86 82 66 60 68 66 74 69 66 56 65 66 66 71 75 75 73 71 71
54 50 58 59 62 69 62 59 68 55 71 82 51 52 57 58 69 62 79 95 90 89 59 83 83 81 85 60 64 63 59 66 69 73 77 81 82 80
53 52 56 64 70 64 63 55 61 66 66 55 54 57 59 60 60 64 74 95 95 93 70 85 93 87 90 87 73 74 70 66 65 73 79 85 89 93
56 60 58 67 64 64 62 70 70 67 55 60 66 73 76 80 81 81 83 87 86 94 91 95 96 95 95 90 84 77 78 79 81 90 84 82 88 97
62 61 67 67 65 62 68 70 70 60 64 76 82 85 83 85 89 88 87 87 88 87 89 89 96 95 96 95 93 88 90 88 86 95 95 97 92 94
63 64 63 63 66 66 62 58 57 59 70 82 85 81 81 86 87 85 91 90 92 86 82 85 96 98 96 91 95 92 87 97 95 98 98 98 98 98
62 59 54 57 63 60 60 60 61 61 76 77 86 85 83 84 85 85 89 91 94 92 89 83 86 88 89 94 95 87 94 97 97 98 98 98 100 96
62 60 66 68 70 67 70 70 69 77 78 85 85 86 90 90 91 88 89 92 94 89 91 88 88 89 83 82 70 96 91 96 97 98 98 98 98 92
65 72 76 75 77 79 81 84 87 81 89 92 92 91 92 91 89 91 90 90 90 88 90 88 93 96 94 90 78 71 98 97 97 97 98 98 99 98
72 77 81 79 80 84 86 89 89 86 88 88 92 93 93 94 93 92 91 93 91 90 90 88 91 95 97 97 95 88 83 98 98 97 97 97 96 93
76 78 76 81 85 88 88 89 90 92 93 94 92 93 93 95 92 91 91 88 90 90 92 90 90 82 93 93 90 83 86 81 88 99 97 97 98 98
76 80 80 83 88 91 92 91 91 90 92 92 92 93 93 94 94 92 89 93 89 91 93 90 88 90 91 88 93 90 89 85 80 79 87 99 99 98
82 82 84 87 89 90 91 91 91 91 91 93 93 93 93 94 90 89 90 90 92 92 90 92 88 86 87 90 89 88 89 86 90 87 93 95 99 99

GFSNE_sfc_rhum_042.txt.gz
RH
28 31 32 32 34 34 35 37 42 44 37 28 26 24 28 31 37 33 34 47 53 57 60 60 59 58 59 59 60 59 61 62 64 67 65 62 66 66
29 32 33 32 34 35 38 38 39 42 46 32 29 30 32 31 37 34 34 49 54 57 58 57 57 58 60 62 63 62 62 62 63 67 66 68 66 64
33 35 37 36 37 34 36 36 39 40 44 41 36 35 38 38 34 36 40 40 38 48 52 56 58 60 61 61 62 64 65 66 70 72 68 66 68 67
35 38 38 33 37 34 35 38 40 41 47 53 48 45 41 39 42 46 37 29 33 43 53 56 59 60 61 62 62 64 64 65 69 67 67 71 68 66
38 40 40 38 37 38 40 44 45 42 53 62 59 46 46 50 49 43 39 37 32 46 51 55 58 61 63 63 63 62 62 62 63 64 67 65 65 65
40 42 41 40 40 42 43 44 43 49 47 51 57 66 72 52 52 48 43 43 44 39 50 53 57 58 60 60 60 61 62 64 65 65 65 65 65 65
38 38 38 44 57 57 51 50 50 55 66 76 76 79 67 53 43 45 50 51 55 52 51 49 45 48 50 57 56 59 60 62 64 66 69 70 68 67
38 37 36 46 46 57 59 60 62 71 94 95 85 69 48 43 48 54 69 84 72 50 51 57 52 52 50 48 57 60 62 63 65 66 68 69 69 71
40 40 38 37 48 45 53 60 63 67 70 62 58 46 49 49 75 92 79 76 72 57 61 68 52 51 48 42 59 62 64 66 68 69 70 69 70 71
40 41 44 45 45 49 51 74 78 58 44 41 46 48 59 70 68 60 69 74 68 58 53 79 57 58 51 50 63 66 67 67 67 68 70 71 72 71
40 40 44 45 52 60 65 91 51 44 43 51 59 68 68 61 61 67 86 85 80 66 60 66 64 71 68 65 54 56 58 61 66 69 71 74 85 88
42 40 49 49 58 64 66 53 58 44 56 76 56 46 48 49 60 58 76 95 88 88 60 80 81 77 85 62 64 62 57 64 66 68 71 74 79 87
44 41 42 56 62 63 62 51 51 58 70 52 46 48 49 53 55 59 70 92 95 92 69 80 92 86 90 86 72 73 69 66 63 67 73 72 74 86
47 47 49 62 63 64 60 63 68 67 51 51 58 64 70 76 78 79 79 85 84 93 87 91 96 94 95 89 82 76 77 78 79 88 85 82 82 82
58 58 62 62 63 56 58 67 66 51 55 68 77 81 80 82 87 87 87 86 87 87 87 88 96 96 96 95 92 87 86 86 86 95 99 98 97 97
60 59 54 56 54 55 50 49 48 52 62 75 81 77 78 84 85 83 90 86 92 86 82 85 92 97 96 91 91 90 88 95 91 98 98 98 98 98
60 48 44 43 49 48 50 51 53 54 72 74 84 83 80 82 83 83 88 92 92 89 86 83 86 89 92 94 94 87 86 94 92 98 98 98 98 98
56 49 50 54 56 56 60 62 64 73 74 82 83 84 89 89 89 87 88 92 91 87 86 87 88 88 84 81 74 87 90 92 92 97 98 98 98 96
53 58 62 62 65 68 73 78 83 77 87 90 92 90 91 91 88 90 89 90 89 87 86 88 91 95 94 91 75 72 98 94 95 92 94 98 98 98
60 65 67 65 68 75 80 85 86 84 87 89 91 93 93 94 93 92 90 92 90 88 87 87 89 92 97 97 96 90 81 99 97 95 97 97 95 96
62 64 63 68 75 81 83 86 88 92 94 94 92 93 93 95 92 89 88 85 85 88 92 88 88 80 94 94 92 82 84 79 83 99 98 97 96 98
62 66 67 72 81 87 90 90 91 90 92 91 92 93 92 93 94 90 86 91 87 86 92 88 87 92 94 92 90 89 86 81 76 77 85 99 99 98
68 68 73 80 85 88 89 90 91 91 92 94 93 94 93 94 89 89 88 88 85 92 87 87 85 86 87 88 87 88 88 85 83 85 90 96 98 98

GFSNE_sfc_rhum_045.txt.gz
RH
31 34 35 35 37 38 39 41 48 52 46 35 32 28 29 32 36 35 36 45 48 51 54 55 55 55 56 58 60 65 67 64 66 65 63 64 64 66
30 32 34 35 36 39 43 42 42 47 52 38 36 33 34 33 39 37 36 46 49 51 54 53 51 54 56 58 60 62 63 64 66 68 69 68 68 66
32 34 36 36 39 38 40 40 43 44 50 44 42 40 42 44 41 39 42 43 43 50 51 52 53 55 57 59 60 61 62 63 64 65 68 70 70 67
32 36 37 31 40 38 38 41 44 43 51 56 49 50 49 46 43 48 44 38 39 43 49 52 54 56 57 59 60 61 62 62 62 63 68 70 68 69
35 38 40 40 40 41 42 45 47 42 49 54 56 50 50 50 57 56 47 43 35 45 50 52 55 58 59 58 58 59 59 59 60 62 63 66 65 66
36 39 38 41 41 42 46 51 48 53 54 58 62 69 67 70 62 56 50 47 49 40 50 56 56 56 58 56 58 60 60 61 62 62 62 62 64 68
37 36 37 44 48 50 49 56 57 61 70 79 80 80 81 62 56 50 53 57 58 62 59 56 54 54 56 58 56 59 59 60 60 62 64 66 68 69
40 36 36 43 42 48 54 54 54 61 83 95 90 81 69 55 52 58 72 82 88 58 61 63 58 59 57 55 57 58 60 62 63 64 64 66 67 67
39 40 39 34 46 45 50 53 58 63 65 65 68 59 57 53 72 84 86 83 76 65 67 77 66 64 57 49 60 61 63 66 67 66 66 68 70 71
39 41 43 44 45 48 51 70 74 73 61 45 50 52 56 63 83 90 73 74 72 65 62 86 67 68 60 60 65 66 66 66 64 63 64 65 69 76
39 40 42 45 48 53 60 81 74 56 48 50 55 61 64 60 56 61 85 88 85 72 66 75 75 78 74 71 63 60 60 61 66 67 68 68 69 78
46 43 48 45 52 57 58 63 67 57 60 68 63 57 51 52 57 58 74 97 93 90 70 85 89 86 91 68 73 68 68 67 66 68 68 70 74 79
54 48 45 55 58 61 61 59 60 58 64 66 56 53 56 60 62 66 73 93 96 94 74 81 95 91 93 90 76 75 73 73 71 70 73 73 76 81
51 50 56 61 61 60 59 59 62 64 59 57 63 69 73 78 79 79 75 83 85 94 89 91 96 96 95 92 86 77 77 78 80 83 83 91 95 90
52 59 61 61 58 54 54 58 57 55 58 71 79 83 82 83 85 86 85 86 86 84 84 85 95 95 96 95 93 89 85 82 84 93 96 98 94 97
64 65 58 55 49 50 50 50 53 56 64 78 85 82 81 85 86 84 93 90 93 87 80 82 87 93 96 93 92 92 84 93 88 96 94 96 90 88
61 60 52 46 53 52 53 57 59 60 76 81 90 91 86 86 86 84 89 93 95 90 87 82 82 84 88 96 96 89 88 88 88 91 95 94 90 86
62 56 53 60 61 60 64 68 70 77 81 90 89 89 92 92 91 89 88 93 94 90 90 86 87 90 84 79 71 87 85 89 89 90 90 97 92 85
55 63 67 68 69 71 76 82 87 82 88 94 94 92 92 93 89 91 90 92 92 87 87 86 89 96 95 91 73 67 90 91 92 93 86 93 98 96
64 69 72 70 72 78 84 90 90 87 89 89 91 93 93 95 94 92 92 94 93 92 92 86 87 92 97 96 96 86 78 95 98 97 90 90 93 82
67 69 68 73 78 84 88 91 91 92 93 95 92 93 92 96 93 90 90 86 87 92 93 89 86 76 85 91 91 80 78 75 83 97 98 98 97 97
66 72 73 76 83 91 93 92 92 90 92 92 93 94 94 95 94 94 92 94 92 90 94 90 83 85 90 88 94 92 84 80 76 77 84 99 100 98
74 75 78 83 88 92 94 93 92 91 90 94 94 94 95 95 92 92 91 90 93 95 85 87 85 84 81 86 87 94 92 90 86 89 89 93 97 98

GFSNE_sfc_rhum_048.txt.gz
RH
42 45 48 50 52 54 56 58 67 65 58 56 52 41 46 46 49 43 43 48 51 52 53 53 53 54 55 55 56 59 62 63 66 68 70 68 68 66
42 41 46 50 52 56 60 61 63 67 62 51 47 51 50 42 46 44 45 51 51 53 55 53 53 54 55 56 57 60 63 64 64 66 66 70 66 66
41 45 48 48 55 57 59 59 61 64 62 52 50 51 59 56 49 51 49 47 50 55 54 54 52 53 55 56 57 59 59 64 66 68 68 69 71 70
43 47 50 39 54 56 58 57 61 62 62 64 59 58 61 56 52 54 51 52 53 49 53 51 54 55 56 58 59 58 58 58 60 62 64 66 64 66
46 49 52 54 58 60 59 64 68 55 67 69 69 62 60 62 66 69 65 53 45 47 50 54 55 60 61 59 59 58 58 60 60 60 61 61 63 65
49 52 51 53 56 58 59 66 62 72 70 72 73 79 76 77 79 72 64 58 53 47 53 60 65 60 61 59 61 61 61 61 62 62 61 62 65 66
51 48 48 54 49 49 49 68 72 76 77 85 87 81 76 75 76 68 62 61 61 64 72 65 62 62 62 62 61 62 62 62 61 62 63 64 63 62
56 52 50 51 51 48 51 53 54 61 81 83 87 92 89 79 62 65 70 80 86 69 76 69 64 66 65 64 63 63 63 64 62 63 66 66 67 69
56 54 50 39 54 58 59 53 57 60 63 67 77 72 64 61 78 84 85 93 87 70 73 81 67 70 64 55 65 66 65 68 68 66 66 67 69 71
54 54 57 58 59 54 56 83 84 83 78 66 60 59 62 64 68 91 84 78 75 71 71 91 71 72 65 67 68 69 69 67 64 63 66 67 68 71
53 55 56 59 55 52 64 85 75 77 57 59 58 62 64 63 59 62 85 89 85 74 70 79 78 82 78 74 67 67 62 62 68 68 70 68 71 70
66 62 59 51 56 57 60 67 75 68 69 75 68 68 62 66 61 67 78 96 94 90 75 87 88 88 91 70 79 68 71 69 69 70 70 71 72 75
75 67 62 58 60 61 60 64 65 59 63 70 65 64 63 66 67 71 76 91 96 93 74 81 94 90 93 91 77 75 72 73 73 71 74 75 74 76
64 66 69 64 62 60 59 57 58 60 61 63 68 74 80 84 83 83 82 86 86 92 86 91 96 96 95 92 87 76 78 78 81 83 82 79 79 80
62 62 64 64 63 60 56 57 57 65 67 76 86 87 86 87 89 88 86 86 89 88 87 86 93 95 96 95 93 89 86 83 83 91 88 90 95 88
70 82 66 62 56 54 58 59 64 66 71 79 85 85 85 88 88 87 93 90 94 88 81 85 88 93 96 94 94 93 86 94 86 86 90 96 90 87
63 70 67 63 68 64 64 65 67 69 81 84 90 91 88 88 88 86 90 93 96 91 88 83 82 83 87 92 96 89 88 90 87 86 89 93 87 87
66 67 70 74 75 71 72 74 76 82 83 90 91 91 93 93 92 91 90 93 95 90 91 87 87 92 86 80 73 90 86 88 88 85 88 97 92 81
70 82 81 80 79 79 82 86 90 86 88 93 94 93 93 94 90 91 91 93 92 89 88 88 95 96 95 91 73 66 95 93 90 92 87 89 97 89
82 85 83 80 80 84 87 91 91 88 89 90 92 94 94 95 94 92 92 94 93 92 93 87 90 96 97 96 96 85 77 89 97 95 90 86 86 82
80 80 79 82 85 87 90 91 91 92 92 95 93 94 94 95 93 91 92 87 87 91 94 90 87 78 88 89 94 82 77 74 81 95 97 98 97 96
80 83 83 84 87 92 93 92 92 91 93 93 93 94 94 95 94 94 93 94 92 92 93 93 84 86 90 94 94 92 88 81 77 79 80 90 99 98
85 85 88 89 92 93 93 93 92 92 92 94 93 94 95 95 93 92 93 93 93 94 94 92 88 85 87 94 96 95 92 88 87 88 85 78 81 96

GFSNE_sfc_rhum_051.txt.gz
RH
45 47 51 54 56 58 60 63 67 75 62 64 58 50 53 55 54 51 51 52 55 55 55 57 56 55 55 56 55 60 61 65 67 66 66 65 66 64
46 43 48 53 54 58 62 64 68 74 71 60 54 58 55 47 52 49 48 54 56 58 58 57 56 56 56 56 59 58 65 61 64 68 70 69 67 68
42 46 48 50 57 60 63 64 65 69 70 61 61 62 67 66 57 56 57 52 54 60 59 57 56 55 56 56 57 59 62 65 63 66 68 70 70 70
42 46 48 41 54 58 63 63 67 68 75 70 68 66 69 66 61 63 58 54 62 58 58 54 55 56 58 60 61 64 59 60 62 63 66 64 65 68
46 49 51 54 58 64 64 67 71 57 76 77 73 70 72 72 74 73 73 68 55 56 54 55 58 62 64 62 61 61 61 62 63 61 62 63 62 64
52 54 55 56 59 62 60 67 64 77 82 81 80 84 80 67 78 79 74 66 61 48 53 58 63 65 63 62 64 64 64 64 65 63 65 68 69 70
55 52 53 55 50 50 52 69 76 82 88 92 93 85 75 74 82 74 73 67 62 62 68 70 75 64 65 66 64 66 67 66 64 65 67 70 70 71
64 60 56 56 53 50 50 51 54 67 92 95 89 83 81 79 69 69 74 81 84 68 77 74 67 69 67 66 66 65 65 67 66 67 68 68 70 70
62 59 55 43 62 64 62 57 58 58 61 71 84 85 83 68 77 86 90 95 89 73 76 81 68 71 66 58 66 67 68 69 69 66 66 65 66 68
59 61 65 67 67 59 65 81 82 84 83 76 76 69 67 67 74 82 80 79 77 70 69 89 71 72 66 67 69 70 70 68 65 64 65 67 68 70
63 65 67 69 62 56 66 86 83 79 64 60 60 64 65 64 61 66 85 89 87 75 70 79 78 82 77 74 67 69 63 63 67 68 70 70 69 70
70 71 67 57 58 59 63 70 77 71 71 79 72 67 62 68 65 69 82 95 94 92 75 91 89 90 90 89 84 70 73 70 70 70 70 71 71 73
78 73 68 63 63 63 61 68 66 58 66 66 62 64 65 68 71 75 82 94 96 94 75 84 95 91 95 90 78 76 73 73 71 71 72 74 76 76
72 73 73 68 64 63 61 58 59 62 62 64 72 77 83 86 85 85 85 89 90 93 87 91 96 95 95 92 87 78 78 78 80 85 84 80 80 79
70 67 67 66 62 63 61 60 61 68 71 81 87 88 87 88 90 91 88 89 90 89 88 88 94 94 96 95 92 88 86 83 83 89 93 89 86 84
73 86 64 60 61 63 64 63 66 69 77 84 89 87 87 90 91 89 94 91 94 88 81 86 90 94 95 94 94 92 85 94 86 86 87 87 86 85
65 71 67 67 73 69 68 68 69 71 84 86 91 89 88 88 89 87 90 93 96 91 89 84 84 87 89 92 96 89 88 89 87 87 89 91 86 82
66 69 76 78 79 75 76 77 78 84 86 90 91 91 93 93 92 90 92 95 95 91 91 88 89 91 87 82 81 94 92 91 87 87 88 96 91 81
73 82 85 83 83 83 86 90 92 88 90 93 94 93 92 93 90 92 92 93 92 89 89 88 94 95 95 91 73 66 89 93 89 87 88 90 96 88
86 89 88 85 86 90 92 93 92 90 91 91 93 94 94 95 94 93 92 94 93 91 92 87 90 95 97 95 95 84 76 94 96 95 92 86 86 78
85 87 85 88 90 92 92 92 92 93 92 94 92 94 94 96 93 91 92 88 88 92 93 89 86 79 90 94 94 82 77 72 80 94 97 97 92 88
84 88 88 90 93 94 94 93 93 92 92 93 94 95 94 94 95 94 93 95 92 92 93 90 87 88 93 96 93 90 88 82 76 77 78 84 98 98
89 90 91 93 94 94 94 94 93 93 92 94 94 94 94 95 92 93 93 93 94 94 93 89 86 86 90 94 93 93 89 86 86 87 84 78 81 83

GFSNE_sfc_rhum_054.txt.gz
RH
45 45 53 57 60 60 62 64 65 69 67 60 58 53 56 58 59 53 60 58 57 58 59 59 58 58 58 57 56 58 70 61 65 63 64 64 65 66
46 43 49 56 57 62 64 66 72 72 77 67 58 60 58 51 55 52 56 59 61 62 61 60 59 58 57 58 63 60 58 66 64 68 65 68 67 66
42 44 49 51 57 62 66 67 69 74 77 66 68 65 72 69 63 64 63 60 61 63 63 62 61 59 57 58 57 60 61 64 69 67 64 65 69 68
43 48 49 42 56 60 66 66 69 70 76 73 74 79 77 74 75 72 64 57 64 66 66 62 59 58 59 60 61 63 65 62 61 64 62 60 62 64
51 52 52 57 61 66 68 70 72 60 77 80 76 80 83 82 80 74 80 76 64 62 60 60 60 62 64 63 62 62 62 63 62 62 62 62 64 65
54 56 56 58 59 61 62 66 65 75 79 82 81 87 93 85 83 81 75 67 66 53 57 60 64 64 65 65 65 65 66 66 67 66 63 67 69 71
58 56 57 58 55 53 55 69 74 78 83 92 90 98 95 81 79 76 76 70 67 67 70 74 75 80 71 68 66 66 68 69 66 65 66 69 69 69
64 62 58 55 58 56 55 53 54 71 95 98 98 95 87 84 78 80 78 86 87 70 85 73 68 69 68 68 68 67 66 66 66 66 69 72 72 73
63 64 59 51 67 68 66 60 62 61 60 70 85 87 89 83 81 90 91 96 85 76 76 81 69 71 67 60 66 67 68 69 67 66 67 67 69 70
67 67 72 73 72 65 70 83 84 83 80 75 84 82 79 75 79 82 77 81 78 72 70 89 70 73 66 66 68 69 70 69 68 66 64 63 65 66
65 68 72 75 66 60 70 89 84 82 67 61 61 64 67 64 61 71 88 91 87 76 70 80 81 80 76 73 67 71 66 64 63 67 68 69 68 67
68 70 67 62 61 62 67 78 83 73 72 80 73 63 62 68 66 72 85 96 94 93 82 95 89 88 90 90 78 80 67 72 70 70 70 69 69 67
77 73 70 67 66 64 61 71 68 62 70 67 64 66 69 73 74 77 83 95 95 94 76 83 96 91 94 91 82 78 76 72 71 71 72 72 73 74
75 75 76 68 64 63 63 63 62 64 65 68 76 82 85 87 86 86 85 89 90 94 87 92 96 96 95 92 88 78 80 80 80 83 84 80 78 77
75 69 68 64 62 66 66 64 65 72 73 84 90 90 89 90 91 91 90 90 93 91 90 90 96 94 96 95 92 88 88 84 83 88 90 94 93 87
76 83 63 62 65 66 66 66 67 71 79 86 90 88 86 89 90 89 94 92 94 89 82 84 91 95 95 94 93 92 86 94 87 87 88 88 87 85
70 66 69 71 76 72 70 71 72 74 87 88 92 90 88 90 90 88 92 93 96 92 89 84 84 88 90 93 96 90 89 90 88 88 90 93 88 84
69 75 81 84 83 80 81 82 82 87 89 91 91 92 94 93 92 90 91 94 95 91 92 88 89 91 86 82 84 93 90 91 87 87 89 96 91 82
78 87 91 89 89 89 91 93 94 90 91 94 94 93 93 94 90 92 91 93 92 90 89 88 94 96 95 91 72 62 92 95 92 91 88 88 92 86
91 95 94 91 91 93 93 94 93 91 92 93 94 94 94 95 94 93 93 94 93 91 92 88 90 94 96 95 95 83 75 92 96 94 90 86 83 76
90 91 90 93 93 93 93 94 94 94 92 94 93 94 93 95 94 92 93 88 88 92 94 90 86 79 92 95 95 82 75 71 79 96 96 97 92 88
88 92 92 93 94 95 94 94 94 93 93 94 93 93 92 94 94 94 93 94 93 92 92 89 87 90 95 97 94 91 87 80 76 78 85 96 98 98
92 93 94 94 94 94 94 94 94 93 93 94 93 92 92 94 92 92 92 92 94 95 92 92 86 86 91 96 96 96 94 90 88 88 86 77 78 80

GFSNE_sfc_rhum_057.txt.gz
RH
47 48 51 56 56 57 62 63 62 62 68 61 59 57 58 61 61 61 64 61 60 60 61 61 61 60 59 59 58 57 58 57 61 61 64 62 63 63
48 45 48 54 57 59 62 65 70 68 73 70 62 63 61 52 61 60 65 62 62 63 63 62 62 61 60 59 59 61 58 58 61 65 67 63 64 66
49 48 50 49 55 62 66 70 73 77 79 69 70 66 71 71 66 69 70 68 67 65 66 65 64 62 59 59 59 58 60 63 65 67 67 72 68 65
53 48 47 42 53 57 61 67 72 73 77 72 78 79 79 75 77 81 66 59 66 66 69 66 62 61 62 62 62 61 63 67 66 63 63 64 62 62
59 64 58 53 55 62 64 70 72 61 77 84 77 84 85 86 87 85 84 79 68 65 63 63 63 64 66 64 63 63 62 63 63 62 62 62 63 62
62 60 56 57 59 59 59 66 65 76 81 82 79 88 91 86 95 90 80 74 72 57 61 64 66 66 63 64 66 67 67 67 67 66 65 64 63 62
54 54 56 59 54 56 60 73 76 80 82 91 91 97 97 94 87 78 85 78 76 73 74 80 79 77 70 68 67 67 68 70 68 66 66 66 68 70
60 60 60 56 64 60 59 57 57 75 96 98 97 98 93 90 81 85 85 91 89 78 91 76 72 71 67 68 68 69 68 67 67 65 67 68 69 71
61 65 61 54 72 72 69 63 65 63 62 74 88 87 87 83 85 92 91 95 88 72 78 82 70 73 66 60 67 68 68 68 68 67 64 64 68 72
64 71 74 75 78 69 74 85 85 83 80 76 85 81 83 80 88 87 83 81 80 75 75 90 72 73 65 67 69 69 70 69 68 66 65 62 63 64
65 70 74 78 70 62 73 89 83 83 68 62 62 66 68 65 62 71 90 93 88 78 72 80 85 80 74 70 64 70 67 66 63 63 65 67 66 66
71 71 68 66 64 63 67 78 86 74 74 84 71 64 63 68 69 74 88 96 94 92 85 97 86 92 93 91 91 79 66 70 70 70 71 69 69 65
77 75 72 70 65 62 62 75 72 66 72 70 68 70 72 75 75 78 83 96 96 94 74 84 96 93 94 91 88 81 75 71 71 70 72 73 73 72
76 77 78 70 65 63 64 66 65 68 69 72 79 84 87 88 87 87 85 88 89 94 88 93 96 96 95 92 88 77 80 79 79 81 82 80 78 77
75 71 68 63 63 69 68 68 68 75 76 86 91 91 90 91 91 92 90 90 91 91 90 90 96 94 96 94 92 88 88 84 84 88 90 91 92 89
74 76 61 64 67 69 69 68 69 72 82 89 92 89 89 91 92 90 95 92 94 89 82 85 91 94 95 93 93 91 85 94 88 87 88 89 89 88
70 68 72 74 81 77 75 76 77 78 90 91 93 91 90 90 91 90 93 94 96 92 90 85 86 89 91 93 95 89 89 91 88 90 92 92 88 86
72 79 86 88 88 85 86 87 86 89 91 93 92 93 94 94 93 91 92 95 95 91 92 89 89 91 87 81 84 93 89 91 88 87 89 96 92 81
83 95 96 93 92 92 94 95 96 92 93 95 95 94 94 94 91 93 92 93 92 90 89 88 94 96 95 91 72 62 95 93 93 95 89 90 92 85
95 97 96 93 93 94 94 95 94 93 94 94 95 94 94 95 94 94 92 94 94 91 92 87 92 96 97 95 95 83 74 96 96 94 90 86 84 77
94 94 93 94 95 94 94 95 95 95 93 94 94 94 93 95 93 92 92 88 88 92 94 92 87 80 90 94 95 82 76 72 88 98 95 96 92 88
91 94 93 95 95 95 95 95 95 94 94 94 94 93 93 94 94 94 93 94 91 91 93 91 88 94 96 97 94 91 90 81 76 78 82 93 98 98
94 94 95 95 95 96 96 96 95 94 94 94 94 92 93 95 91 92 94 94 92 95 91 93 89 86 93 96 96 96 94 90 86 87 85 78 79 80

GFSNE_sfc_rhum_063.txt.gz
RH
60 61 64 52 54 49 55 49 53 55 48 44 48 46 42 40 41 38 41 52 60 59 60 62 61 62 61 61 60 60 59 58 58 59 60 58 63 60
51 50 55 52 62 64 70 76 80 80 74 53 48 48 52 39 43 43 44 59 59 62 62 62 62 62 61 61 60 60 61 61 63 61 61 65 65 66
48 52 60 68 73 75 81 82 84 75 82 64 48 44 45 44 43 44 49 48 48 61 64 62 63 63 62 62 62 62 61 63 65 67 67 66 69 68
62 65 69 68 82 83 87 86 81 73 62 56 49 48 49 49 49 53 51 47 48 55 65 66 64 64 65 64 64 62 63 64 66 66 64 64 65 66
71 77 84 89 96 99 95 84 81 64 70 73 60 54 54 55 56 56 57 56 51 61 63 64 65 67 67 65 64 63 63 63 64 64 63 62 62 62
86 88 95 97 98 93 88 83 77 74 70 66 60 65 62 59 66 67 61 52 52 50 57 63 67 64 65 66 66 67 68 68 68 68 66 64 64 64
100 100 97 91 91 80 69 72 68 62 63 74 74 71 71 64 62 60 61 58 59 59 57 52 51 52 54 60 62 65 67 70 70 69 67 67 66 69
89 87 85 76 83 80 67 58 57 63 84 80 83 75 68 64 61 61 68 77 77 51 57 58 53 54 52 51 62 67 68 67 67 67 66 67 69 69
73 59 59 64 75 66 64 61 63 64 65 68 70 65 65 58 74 88 81 82 75 60 61 67 54 55 51 47 63 66 67 68 68 68 66 64 64 68
81 75 66 63 62 60 61 74 74 69 65 60 60 59 61 68 71 78 70 66 63 57 56 81 56 55 50 49 62 67 69 68 67 65 64 63 62 62
62 60 61 61 65 60 66 84 66 60 56 61 64 69 67 64 63 66 79 81 81 63 56 65 63 64 61 59 50 62 63 64 63 63 64 66 67 66
61 59 65 63 62 60 61 64 66 56 62 71 58 53 56 58 70 62 74 94 90 84 59 77 70 72 81 54 56 54 51 62 65 68 70 69 69 66
63 62 62 67 62 61 60 60 59 58 66 57 55 57 58 60 62 63 69 89 94 92 66 82 90 83 89 81 64 61 60 58 54 57 66 69 71 71
66 65 65 63 60 62 63 66 66 68 57 60 67 70 74 77 78 78 78 82 81 93 86 92 96 92 94 89 82 66 68 68 68 70 69 72 77 77
60 65 64 62 66 67 70 70 68 62 65 76 80 83 82 84 91 89 88 89 92 91 92 92 96 94 96 94 90 83 84 78 76 86 88 86 81 76
67 59 60 66 71 69 65 64 62 64 72 77 82 78 80 86 86 84 92 90 94 88 83 87 93 94 95 90 91 89 82 93 83 84 86 86 85 82
63 55 61 64 68 66 67 67 67 67 77 78 85 85 82 84 86 85 90 92 94 92 90 83 83 84 89 94 95 86 85 88 86 87 89 91 86 78
58 66 70 72 74 73 74 73 73 79 78 85 86 87 91 91 92 90 90 94 94 90 91 88 88 90 85 81 83 92 88 89 86 87 91 96 88 76
67 75 78 79 80 81 83 86 89 83 91 92 93 92 92 92 92 92 92 92 90 88 89 88 94 96 95 89 70 66 97 91 88 88 87 89 92 84
76 80 82 81 82 86 87 90 90 88 89 91 92 92 94 95 95 93 90 92 92 90 90 86 90 95 98 96 96 84 77 97 93 92 89 83 81 77
77 80 79 83 86 88 89 90 92 93 93 94 92 94 94 95 93 90 90 86 85 89 93 88 86 78 90 94 93 79 77 74 82 96 95 96 89 84
77 80 80 84 88 91 92 92 93 92 92 93 93 94 93 94 94 91 89 92 88 88 91 90 85 88 91 94 91 88 83 78 74 77 80 91 99 96
80 80 84 88 91 92 92 92 92 92 93 94 94 93 93 94 87 87 88 88 95 91 88 88 84 83 86 88 88 87 88 85 81 83 82 75 79 83

GFSNE_sfc_rhum_066.txt.gz
RH
78 66 63 66 62 64 63 57 59 59 54 53 58 45 49 48 48 40 34 43 51 58 59 60 61 62 62 62 62 61 60 60 59 59 59 62 62 62
77 75 72 63 62 69 74 80 81 81 82 75 79 76 76 59 52 42 36 48 54 55 60 62 62 62 62 61 60 60 60 59 63 62 64 65 67 66
71 77 76 73 74 71 75 78 89 91 94 97 97 89 66 56 40 40 42 40 38 49 54 58 60 63 63 62 62 62 61 61 62 65 65 66 68 67
60 64 70 68 82 86 88 92 95 98 95 94 74 71 59 55 61 55 42 37 41 48 56 61 65 65 65 65 64 64 62 60 61 62 64 66 66 64
67 73 76 81 93 98 99 98 98 98 88 77 70 63 61 51 49 46 46 45 38 48 49 54 58 62 64 66 64 64 63 64 63 63 63 63 63 62
86 86 90 94 98 100 100 94 82 72 63 64 56 54 52 50 54 54 48 43 42 39 47 52 58 59 61 62 64 65 66 67 68 67 66 65 63 65
99 100 99 98 95 86 75 66 63 65 64 72 66 58 59 51 50 48 49 45 48 49 48 45 43 45 46 50 52 56 58 62 66 68 66 64 64 67
94 93 92 82 79 79 73 69 61 62 75 75 76 63 53 47 46 47 57 69 75 50 49 50 45 46 45 43 52 58 63 65 66 67 67 66 62 64
87 83 78 68 73 58 60 61 59 62 63 61 60 52 51 46 66 85 74 81 74 53 52 59 47 48 44 38 52 57 61 65 67 68 67 65 64 64
71 68 59 56 55 58 55 62 65 60 55 49 51 48 48 53 61 74 64 59 56 50 50 73 50 50 45 44 55 59 61 62 63 64 65 64 63 63
61 52 53 50 58 62 59 80 58 51 45 53 61 66 68 66 62 62 74 74 75 62 54 60 57 61 58 56 48 55 58 60 62 64 65 66 67 67
49 49 60 60 60 60 57 55 57 45 55 65 50 46 47 49 59 58 67 87 89 84 55 75 70 70 80 55 55 52 51 57 61 63 66 67 68 64
52 50 51 63 61 59 59 50 51 56 58 50 45 47 48 51 54 56 62 84 91 90 66 81 88 82 86 81 64 63 61 58 53 54 61 64 67 68
52 51 52 60 60 62 61 65 66 67 49 51 57 61 67 72 74 76 76 81 79 90 85 91 95 92 94 90 82 68 70 70 68 70 68 68 72 73
52 60 58 59 61 58 64 69 66 53 55 66 71 77 78 81 87 86 92 92 91 90 91 92 95 91 94 94 90 83 83 79 78 88 90 88 83 76
61 48 53 60 64 63 56 53 53 54 62 68 72 71 75 81 82 81 87 86 88 87 96 93 93 94 94 89 91 89 82 94 84 85 86 87 85 82
59 41 45 49 54 52 54 55 55 56 67 69 77 79 78 79 82 84 85 91 94 88 87 85 89 88 91 95 96 87 86 87 86 87 90 91 86 80
44 46 52 57 60 59 60 61 63 70 71 79 81 82 86 88 88 87 89 88 91 86 86 86 86 89 87 82 83 92 88 90 88 90 94 97 90 78
48 57 63 65 68 69 72 76 81 76 86 88 87 88 88 89 91 90 89 88 85 85 86 86 90 93 95 92 72 67 93 92 89 88 84 86 92 85
61 66 70 69 71 76 79 83 84 82 84 85 87 88 90 93 93 91 90 87 88 88 88 87 88 91 98 95 95 84 76 92 92 93 86 82 81 76
61 66 66 71 77 81 82 84 86 88 88 90 89 89 90 93 92 90 90 81 80 85 90 86 85 75 91 93 95 81 76 76 80 90 91 93 91 85
60 65 68 74 80 84 87 88 88 88 90 90 90 90 90 91 93 92 87 90 85 85 88 94 84 87 93 95 91 85 77 76 73 75 77 82 97 96
65 66 71 77 83 86 87 87 88 89 90 92 93 90 88 92 85 83 86 82 84 88 92 84 83 84 93 95 89 87 81 79 80 81 80 74 79 86

GFSNE_sfc_rhum_069.txt.gz
RH
94 87 81 85 85 85 89 93 94 95 92 81 66 63 70 73 73 68 62 62 58 50 56 58 60 61 63 63 63 62 62 61 60 59 59 60 58 62
92 90 91 90 91 94 90 91 93 91 89 83 88 90 87 77 79 79 70 61 53 52 53 54 56 60 61 62 62 62 61 60 60 59 59 58 58 66
84 85 85 85 92 91 91 92 93 95 96 98 95 95 94 89 77 62 51 46 45 49 49 52 57 60 62 63 63 63 62 62 61 60 59 60 62 63
82 81 84 76 84 92 94 95 96 97 93 96 96 94 93 83 70 69 58 41 43 46 52 54 58 59 61 63 63 63 63 63 62 62 62 60 59 59
73 79 84 87 94 98 99 98 98 97 97 96 86 67 67 66 62 53 53 50 42 46 45 48 53 56 60 63 65 66 66 66 65 64 64 64 63 63
89 90 92 95 98 99 98 97 92 89 82 76 68 67 62 59 65 64 60 55 50 38 46 51 53 54 54 55 56 58 59 61 62 64 64 64 63 62
99 100 98 95 92 84 79 77 73 71 68 79 76 72 75 66 61 60 58 55 57 60 61 57 56 55 54 52 52 53 53 56 59 62 64 62 61 64
97 99 91 86 82 82 81 83 79 72 85 86 89 76 64 59 58 60 74 80 82 65 66 64 57 58 55 54 52 53 56 57 60 62 63 63 62 64
98 94 79 73 78 67 61 58 59 58 60 68 71 64 61 56 84 92 82 82 80 68 64 69 59 60 56 45 53 55 58 59 61 63 63 64 64 63
93 84 65 55 56 64 61 69 72 68 66 56 63 57 57 62 70 77 77 72 67 64 64 80 64 65 58 56 57 59 60 62 62 63 64 65 64 64
82 71 57 51 60 62 67 85 69 62 44 46 53 60 64 67 66 73 85 85 78 75 69 76 76 75 71 67 62 60 57 57 60 63 63 64 65 65
53 51 61 63 61 62 62 61 66 55 62 73 66 57 53 55 54 66 79 86 88 91 81 91 86 85 94 75 74 71 66 62 62 62 65 64 64 61
54 53 55 62 61 60 60 63 57 59 65 64 57 58 60 63 68 69 73 88 94 93 73 84 98 90 90 88 79 76 72 70 68 67 66 67 67 67
52 54 57 62 60 62 64 58 65 68 63 60 67 74 82 87 80 79 80 82 85 92 85 90 97 91 94 92 89 78 79 78 78 81 80 75 74 73
56 63 59 56 59 62 60 67 67 64 63 75 82 89 90 82 86 84 84 85 88 88 86 89 96 95 97 95 93 89 86 84 82 89 93 89 86 83
62 59 48 59 60 64 61 57 60 61 70 79 82 82 82 81 81 81 89 87 89 84 82 87 90 96 96 94 93 91 84 94 86 86 87 88 89 88
66 47 47 51 59 57 59 60 63 63 78 80 79 80 79 80 82 87 85 89 94 87 84 81 83 86 93 96 95 90 88 89 86 87 90 94 88 84
54 45 52 62 65 64 65 68 73 76 75 81 84 87 89 90 90 91 90 88 93 88 89 85 84 88 88 85 82 93 89 92 88 87 89 96 91 80
49 61 68 72 75 78 82 81 81 81 84 90 93 91 93 91 87 92 91 90 88 86 86 86 89 92 95 91 74 69 84 86 87 88 86 86 89 81
62 72 76 76 78 79 82 84 88 88 87 88 90 92 94 95 94 93 92 92 90 90 90 86 87 88 97 96 95 85 77 89 92 96 92 83 77 73
66 71 74 79 80 79 88 90 92 93 92 95 93 93 94 95 93 92 91 86 86 88 92 88 84 74 85 89 95 81 75 76 80 86 85 91 90 87
63 70 74 82 79 86 85 92 94 90 88 92 93 93 93 95 95 93 92 92 90 90 91 85 83 94 90 91 94 90 82 76 73 73 74 80 96 97
72 72 78 84 82 83 88 94 94 93 91 92 94 93 93 95 90 90 90 87 89 91 88 91 91 82 84 86 95 82 82 81 78 79 78 72 75 79

GFSNE_sfc_rhum_072.txt.gz
RH
98 98 92 92 90 90 90 90 92 98 96 97 97 94 93 92 87 80 78 71 66 71 63 57 56 57 60 60 61 62 62 61 60 60 59 58 58 56
96 94 95 94 94 95 96 96 98 98 99 96 96 96 93 87 84 84 78 75 67 57 53 52 53 53 56 60 61 62 62 61 61 60 60 58 56 58
92 92 93 90 96 96 96 96 98 97 99 99 98 97 97 94 80 74 67 59 54 55 50 51 53 56 58 61 62 62 62 62 61 61 60 58 58 58
86 88 91 85 94 94 95 96 96 97 97 97 96 95 93 87 80 75 63 52 56 48 51 52 51 51 55 57 60 62 63 63 62 60 60 61 59 58
82 84 88 90 96 98 99 99 98 93 95 91 93 89 85 77 83 78 70 64 50 48 46 47 51 55 57 57 59 59 59 60 61 60 60 60 61 61
93 94 94 95 97 99 98 97 90 90 86 82 80 81 72 68 74 72 77 68 66 49 57 56 57 56 54 54 56 57 56 56 57 58 59 59 60 59
99 98 98 93 91 94 95 86 82 79 81 89 85 82 90 74 73 70 69 78 76 73 78 76 74 68 67 62 57 56 56 56 57 58 59 57 59 60
98 98 98 98 97 90 84 78 76 82 88 97 98 90 80 74 70 88 92 96 96 81 82 73 78 76 69 73 60 57 56 57 59 60 60 61 61 61
98 100 98 91 91 88 67 56 61 64 66 76 84 80 76 68 85 94 88 97 95 81 88 77 78 77 68 57 60 60 59 61 62 63 63 64 63 60
98 96 92 76 72 77 72 78 78 76 73 62 75 72 67 74 82 86 92 90 89 85 84 94 82 77 70 78 65 63 64 63 60 60 61 63 61 62
87 81 68 64 60 61 77 88 78 67 45 42 46 55 61 64 68 91 96 98 95 86 83 92 91 93 75 73 74 66 60 61 65 66 65 65 64 64
65 68 61 66 62 62 73 78 77 66 78 80 78 72 63 63 50 72 94 96 89 94 92 96 96 98 96 94 86 74 81 71 68 69 68 67 67 66
67 67 68 61 60 60 60 80 68 71 79 85 74 76 77 81 84 86 85 97 97 93 74 90 98 90 94 91 90 88 77 78 76 74 75 74 74 70
66 74 77 60 57 59 66 62 67 72 84 75 79 90 94 95 87 87 85 88 88 94 87 92 97 96 95 92 88 82 82 79 82 87 85 80 79 74
72 66 58 51 56 66 58 63 64 78 77 94 97 97 97 96 94 90 92 93 92 90 89 88 94 95 97 95 93 88 84 82 82 90 97 93 91 87
73 82 52 52 54 63 66 65 70 73 85 95 96 97 93 83 81 86 93 92 93 89 88 89 90 95 96 94 94 92 87 95 87 87 88 88 89 89
72 66 57 62 71 71 70 72 75 77 93 96 90 89 86 89 88 88 92 94 96 93 89 85 87 88 89 93 96 90 89 89 88 88 88 93 89 89
72 60 72 86 89 79 81 85 88 76 79 86 91 93 94 94 93 92 94 96 95 92 92 87 87 91 89 86 85 94 91 92 91 88 88 93 90 78
69 88 91 94 95 96 97 85 89 85 92 93 97 96 95 94 90 93 92 94 93 91 89 88 93 96 95 92 75 68 85 84 86 88 85 90 92 85
83 91 95 95 96 94 82 93 92 88 93 94 95 95 95 97 96 96 95 94 94 92 93 88 89 87 96 94 95 85 76 89 91 95 91 86 84 77
88 92 93 95 96 82 82 90 95 95 93 96 96 95 95 97 96 96 95 84 84 91 93 89 85 74 84 88 96 86 76 75 79 89 91 95 93 87
83 91 93 96 97 90 86 91 95 94 95 94 94 95 95 96 95 94 94 95 91 90 90 86 83 87 95 96 91 88 84 80 72 73 75 81 96 97
92 94 94 95 97 92 84 94 94 94 94 95 95 94 95 95 92 94 94 92 92 92 88 87 86 94 87 87 90 95 83 81 79 81 81 72 74 75

GFSNE_sfc_rhum_075.txt.gz
RH
99 99 97 96 96 95 95 95 94 99 95 96 96 96 98 97 94 94 93 88 87 81 71 72 67 58 56 57 58 60 61 60 60 59 58 58 57 56
97 95 95 95 96 96 97 97 98 97 98 96 97 97 96 92 92 93 89 84 76 72 67 57 56 54 54 56 59 60 61 61 61 60 59 57 56 60
92 93 93 91 96 96 97 97 98 98 100 100 97 96 97 95 84 83 78 72 66 62 56 54 52 54 56 56 57 59 60 61 60 59 59 58 58 63
88 90 91 87 95 94 95 96 97 98 98 99 96 96 94 89 81 78 66 54 59 55 53 53 52 50 52 56 58 59 58 59 58 58 60 62 60 60
86 89 92 92 96 99 99 99 97 94 95 93 94 90 86 82 81 74 72 78 59 55 48 48 53 56 58 58 56 56 58 59 59 59 58 57 57 58
92 92 94 95 98 98 98 97 93 94 93 90 79 83 79 74 78 79 81 73 68 54 55 57 58 59 60 59 58 58 58 58 58 58 58 58 58 56
98 97 97 91 87 88 91 97 96 96 94 92 87 86 89 76 76 75 73 79 76 76 80 78 76 78 78 70 63 62 61 59 58 58 59 59 56 58
97 98 98 99 93 92 97 95 83 90 92 96 98 92 82 81 79 85 89 97 94 81 86 84 81 81 81 82 67 61 61 61 61 61 62 60 59 61
98 98 92 84 89 92 78 67 62 63 68 86 89 88 81 75 85 95 88 97 95 88 91 90 85 86 81 64 66 64 64 64 64 64 62 59 59 60
96 95 92 92 85 80 80 82 79 79 75 66 82 77 74 75 85 87 91 91 91 90 90 98 91 86 85 80 69 65 63 60 63 66 67 66 64 66
88 85 79 74 61 64 80 84 80 70 48 47 49 56 61 63 69 94 96 97 96 90 88 95 95 90 84 87 82 66 66 67 67 69 69 69 67 67
83 75 59 69 61 60 78 83 80 71 85 84 79 73 67 70 61 77 94 96 98 98 91 97 99 97 96 94 89 76 88 73 70 68 72 72 72 71
69 70 70 61 59 58 59 80 73 71 83 86 79 81 83 90 91 93 92 98 99 90 77 94 99 92 97 91 95 86 79 81 77 75 75 75 75 74
72 80 78 58 55 57 64 62 65 72 84 78 82 93 95 96 92 92 81 85 90 95 89 94 98 97 96 92 89 85 82 81 84 84 86 81 79 75
71 67 59 49 56 68 62 61 62 78 79 95 98 97 98 98 96 84 84 92 94 93 92 92 97 96 98 96 94 90 87 86 85 92 94 94 89 89
72 79 59 51 52 62 65 67 72 76 87 97 97 97 90 88 84 94 95 95 98 95 92 92 94 95 96 95 95 92 87 96 89 87 88 88 89 91
71 70 58 64 75 75 75 78 84 86 96 97 88 86 85 81 88 92 95 95 97 91 94 94 90 88 88 92 96 90 88 88 86 89 91 93 88 83
72 64 73 91 93 82 84 87 89 77 81 91 92 94 95 96 95 94 97 97 97 90 90 91 92 92 90 88 84 93 90 91 89 88 90 96 91 78
67 90 95 97 97 97 97 96 93 90 96 96 96 97 96 96 93 98 98 98 93 90 90 92 94 97 95 91 76 65 88 84 86 88 88 88 91 83
87 92 94 96 97 97 94 84 88 94 95 95 96 96 97 97 97 97 97 97 95 92 94 94 90 91 97 94 95 84 75 89 91 90 86 84 82 74
89 93 94 96 97 97 94 82 96 96 94 97 95 96 98 98 96 96 96 88 88 94 94 90 85 75 87 90 95 85 78 77 78 86 87 95 94 87
84 88 89 95 96 97 96 87 96 93 93 96 97 98 96 96 96 95 94 95 93 93 92 89 83 87 93 93 94 90 84 79 74 78 75 80 96 97
87 88 93 95 97 98 98 87 87 88 88 92 97 96 96 96 94 94 94 93 95 93 90 90 85 84 89 93 91 91 87 83 85 84 78 70 74 76

GFSNE_sfc_rhum_078.txt.gz
RH
99 98 98 97 96 95 97 97 96 100 97 98 96 96 98 98 95 97 96 91 87 85 85 81 77 76 69 59 58 58 59 60 60 59 58 58 58 57
97 95 95 95 95 96 96 95 96 97 98 96 99 98 97 95 95 95 92 90 86 84 78 75 72 62 56 56 58 58 59 59 60 59 58 56 58 59
92 93 93 92 96 96 96 96 98 98 100 99 97 96 98 96 90 92 88 85 78 79 72 60 56 54 56 56 55 56 58 59 58 58 58 60 64 65
89 90 91 87 95 94 95 96 98 97 97 98 96 96 95 94 88 85 74 58 62 57 55 54 54 52 52 56 59 59 59 57 57 58 57 57 56 59
90 91 91 90 96 98 99 98 96 92 94 93 97 92 90 83 82 75 73 78 63 58 50 50 53 56 57 60 60 59 59 60 60 60 60 60 60 60
96 93 93 94 96 98 96 95 90 91 91 92 92 94 88 80 81 80 83 76 70 56 57 57 58 60 61 62 61 61 61 61 61 60 60 60 60 59
97 97 96 89 84 85 93 97 97 98 97 92 89 86 95 77 82 86 81 86 80 84 83 79 79 82 81 73 69 65 66 64 62 62 61 61 59 59
98 98 94 94 87 86 86 83 83 93 98 99 99 95 88 83 81 84 88 96 94 84 88 86 87 86 83 84 70 66 62 64 64 64 64 61 62 61
97 98 94 80 83 86 75 68 69 63 70 89 90 91 88 81 88 95 91 97 96 88 93 96 89 88 83 68 67 69 66 64 63 64 62 66 66 65
98 94 90 88 84 85 88 87 85 85 75 73 88 86 80 78 86 88 92 92 91 88 92 99 92 89 84 78 72 64 60 64 66 68 69 69 67 66
86 84 81 83 66 68 78 84 78 70 57 63 60 60 61 62 72 92 98 97 94 91 91 95 94 96 93 91 84 64 62 66 66 70 69 69 68 69
82 70 60 71 60 60 78 82 81 75 84 87 80 70 72 78 72 80 94 96 98 97 92 96 92 98 97 94 89 84 80 73 70 66 68 71 69 70
70 70 70 61 57 57 61 80 74 71 84 84 80 84 87 91 92 93 89 97 99 94 76 93 99 96 98 98 97 93 87 80 79 77 76 74 74 74
71 78 78 61 54 56 63 64 64 75 82 80 87 95 96 97 96 96 90 85 90 94 88 94 99 99 98 94 92 93 92 85 89 87 88 82 78 75
70 71 61 49 54 64 62 60 66 78 79 96 98 98 98 98 96 93 90 89 92 96 94 98 97 96 98 96 93 86 84 83 82 94 98 96 95 90
68 81 60 53 54 64 67 70 73 78 90 97 97 98 90 87 89 92 94 94 95 94 92 93 96 96 97 96 94 93 83 92 90 89 89 90 91 88
71 68 59 66 77 77 78 82 87 87 96 92 93 91 89 91 91 91 94 97 98 94 89 89 93 92 94 95 97 88 87 91 90 90 91 91 88 87
72 66 74 93 96 84 86 89 90 77 81 85 94 95 96 96 96 98 99 99 97 95 94 92 97 95 92 88 85 94 92 94 90 89 91 96 92 79
66 87 96 97 97 97 98 98 89 86 96 96 97 96 96 96 94 98 98 99 96 96 94 94 98 98 96 92 80 63 88 86 86 89 88 90 92 85
89 92 93 93 97 97 97 97 83 89 96 96 96 96 97 98 98 98 98 99 97 95 96 97 100 96 97 94 94 84 74 90 90 90 91 86 82 76
90 92 91 96 96 97 97 96 94 95 94 97 96 95 99 98 96 98 98 90 89 94 95 93 90 76 88 92 95 85 79 73 78 89 87 93 92 89
84 88 88 94 95 97 98 98 93 88 89 91 91 97 98 98 96 96 95 96 94 95 94 90 87 89 91 92 89 89 86 79 75 76 76 81 92 97
86 88 92 94 96 97 99 99 97 94 88 91 89 89 98 96 95 94 94 94 95 95 92 92 89 88 90 87 90 91 90 86 80 82 79 67 72 74

GFSNE_sfc_rhum_081.txt.gz
RH
99 98 98 97 97 96 97 97 98 99 98 96 94 95 98 98 95 96 97 93 87 86 83 82 83 81 79 76 71 66 64 62 60 59 58 57 57 56
96 95 96 94 94 96 96 95 97 98 99 96 99 98 97 94 94 95 94 92 88 86 84 80 79 74 67 62 59 58 58 58 58 59 58 57 56 57
92 92 93 91 96 95 96 96 97 97 99 99 98 96 98 97 93 95 92 93 91 80 80 74 69 60 57 57 57 56 57 58 59 58 58 59 58 62
89 90 92 86 94 93 95 96 97 96 95 99 97 97 96 95 92 93 81 68 67 61 58 56 56 56 55 55 58 60 60 59 59 60 61 61 60 58
89 90 91 91 97 98 98 98 98 92 95 93 96 93 90 85 88 85 77 72 61 60 55 52 52 54 56 58 61 63 62 62 62 61 61 62 61 60
97 96 96 96 96 96 96 95 92 95 95 96 94 94 86 80 81 81 79 79 73 58 60 60 58 61 63 64 63 63 64 62 62 63 63 62 61 60
98 96 95 88 82 86 93 97 96 96 92 92 90 86 86 82 84 85 81 85 81 87 87 81 81 83 82 74 71 67 66 67 65 64 64 63 61 59
98 95 90 86 84 78 77 76 82 93 98 98 96 95 91 89 87 86 90 97 94 86 90 89 87 86 83 84 69 64 64 66 67 66 64 63 60 61
99 98 91 80 85 86 74 72 72 68 75 89 90 91 89 85 89 96 91 98 96 90 92 95 91 88 83 70 70 68 69 65 63 66 67 67 65 67
95 93 87 86 86 83 88 90 90 75 76 77 88 88 86 80 84 86 92 93 92 87 93 99 93 90 86 82 72 67 60 61 65 67 68 69 68 66
84 86 83 86 66 68 78 85 78 71 63 68 67 64 66 65 69 84 98 98 93 89 91 96 96 96 95 94 84 67 66 62 65 66 68 67 66 66
78 70 64 71 60 59 79 81 81 76 85 89 82 71 77 84 78 84 95 96 98 97 92 100 99 98 97 90 89 80 79 72 69 68 69 71 70 66
70 69 69 64 58 56 65 78 72 73 85 84 82 88 91 92 93 94 87 97 97 96 80 92 99 95 97 98 97 94 90 84 83 79 78 76 75 73
69 74 76 64 52 56 66 62 62 73 81 81 89 96 96 97 96 96 90 94 90 94 90 96 98 98 98 93 88 92 93 90 91 90 90 84 81 76
67 70 64 58 53 65 62 61 70 78 80 96 98 98 98 98 96 90 91 92 94 93 94 95 98 95 97 96 90 88 88 92 84 94 98 96 95 91
66 83 62 56 58 66 68 71 74 79 91 97 98 98 92 94 82 94 97 94 97 97 91 94 97 99 97 94 94 91 88 95 91 88 92 92 91 92
76 66 60 68 78 79 81 84 89 88 97 92 88 92 90 90 92 95 96 98 99 98 94 94 93 95 96 96 97 91 86 87 87 92 94 93 89 86
73 70 74 93 96 84 86 90 92 88 93 90 94 95 96 96 96 99 99 99 98 97 98 96 98 98 96 90 88 94 89 92 92 92 94 97 91 80
76 84 95 97 97 97 98 98 98 95 96 97 97 96 96 97 94 99 99 99 97 97 96 97 100 99 97 95 85 63 87 96 89 90 91 93 93 86
91 91 90 90 95 97 97 98 97 96 95 95 97 96 97 97 99 99 98 99 97 96 96 98 100 99 97 94 94 84 74 90 95 93 91 87 83 77
88 90 88 92 95 96 96 97 97 98 97 95 96 97 95 98 98 98 98 91 90 95 96 94 90 78 92 95 96 84 78 72 78 89 89 95 90 86
89 88 87 91 94 95 96 97 98 97 96 95 92 92 89 97 97 96 96 96 95 95 94 92 90 94 98 96 92 86 81 80 75 73 78 81 91 96
92 89 91 93 94 95 96 96 97 97 97 97 95 87 87 93 97 95 94 94 95 95 94 93 90 92 94 93 88 88 88 87 84 86 81 71 73 76

GFSNE_sfc_rhum_084.txt.gz
RH
98 97 98 96 97 97 97 97 98 99 97 96 94 96 98 98 96 95 96 90 87 82 78 80 78 79 78 81 75 73 72 73 70 66 59 56 57 56
96 94 96 95 96 96 96 95 96 98 99 96 98 97 96 93 93 93 92 89 86 82 80 80 77 78 73 70 68 64 62 59 57 57 57 56 56 56
92 92 93 91 95 95 97 97 97 98 100 99 98 96 97 96 94 94 91 92 90 81 78 77 74 70 63 59 57 56 56 56 57 57 57 56 57 56
90 90 91 86 93 93 94 95 96 95 96 99 96 97 96 94 92 93 81 68 73 66 60 57 56 56 56 55 56 58 59 59 58 59 62 62 61 60
88 89 90 90 94 96 96 96 96 94 96 96 99 93 90 88 91 85 78 74 60 58 56 56 55 55 55 57 58 61 62 63 63 64 61 62 62 62
94 94 95 95 96 96 96 95 92 96 94 96 98 95 87 81 81 78 74 75 75 60 62 63 58 62 62 62 62 63 65 65 63 63 63 63 62 60
96 94 94 87 84 87 93 95 94 95 94 96 96 93 88 83 78 86 81 82 81 87 87 80 80 80 79 74 71 66 65 65 66 66 65 64 60 61
95 90 85 84 81 76 73 72 82 91 98 98 99 96 91 90 89 87 91 97 92 88 92 88 87 84 81 81 68 65 66 67 68 67 63 63 66 64
96 93 89 85 85 87 75 79 74 70 76 88 89 90 89 87 89 96 91 97 96 90 93 92 90 86 81 71 71 68 67 67 63 64 66 67 67 66
93 91 88 88 86 81 88 90 82 73 81 79 88 88 87 83 82 84 91 93 94 89 93 99 93 89 84 86 75 68 66 59 61 65 65 66 66 63
85 85 86 84 63 69 77 84 79 70 66 70 68 65 68 66 71 87 91 99 95 88 93 96 96 97 93 91 80 65 65 66 64 66 66 68 67 66
73 71 64 74 56 59 78 78 78 76 89 87 79 73 83 85 79 86 96 96 98 97 91 99 99 97 97 90 86 79 80 71 68 68 70 72 71 70
69 70 69 63 55 55 71 75 72 75 87 82 82 92 93 92 93 94 87 96 98 96 89 92 99 99 97 98 96 93 86 84 79 78 78 75 76 74
68 74 76 63 51 55 72 59 62 73 80 83 90 96 96 97 96 95 89 96 93 94 90 97 98 98 98 92 94 96 96 94 91 90 90 84 82 77
67 69 63 58 53 65 60 61 72 78 82 96 98 98 98 97 96 90 87 91 93 94 94 97 98 96 98 95 93 88 88 92 84 97 98 97 93 91
67 82 62 58 62 67 69 72 75 80 92 97 98 98 96 90 92 93 97 90 98 98 92 96 98 99 99 97 95 94 88 96 92 87 91 96 92 93
81 65 60 67 76 79 82 85 90 89 97 98 96 90 83 92 91 97 98 99 99 100 96 97 93 95 97 96 98 92 92 94 86 91 95 95 90 87
77 75 74 90 95 82 85 88 93 89 98 98 97 94 96 97 96 96 97 100 99 99 99 98 98 96 96 91 90 94 95 92 93 94 96 97 90 82
85 90 90 94 96 97 98 98 97 97 97 97 97 97 97 97 92 96 99 100 99 99 97 98 100 99 98 96 88 63 97 98 97 89 90 95 94 87
93 92 90 89 92 96 97 98 98 98 99 98 98 97 97 97 96 98 99 100 98 98 98 98 100 99 97 97 97 84 70 88 95 94 92 88 85 77
86 89 88 91 93 95 95 96 97 98 98 99 98 96 97 97 95 96 98 91 90 96 97 95 91 78 96 96 96 87 80 70 77 90 90 92 91 85
89 88 89 90 92 94 95 96 97 98 98 98 98 98 98 94 94 94 95 97 96 96 95 92 92 98 100 95 93 90 86 79 73 73 73 78 92 96
89 90 92 93 93 93 94 95 96 96 97 97 98 97 96 96 84 86 92 96 95 95 94 94 92 97 96 95 91 92 89 84 84 86 84 75 75 78

GFSNE_sfc_rhum_087.txt.gz
RH
93 93 92 91 92 91 90 88 92 96 88 91 81 83 89 94 94 90 88 88 85 81 77 77 77 78 75 77 72 70 70 69 68 66 66 64 59 58
92 88 88 87 86 87 88 89 89 92 97 91 89 89 89 91 90 89 89 88 85 82 79 78 75 76 72 70 68 64 62 60 59 57 55 55 54 55
84 86 88 85 89 88 88 84 86 90 98 98 93 88 91 88 87 85 84 81 77 80 78 75 72 69 66 60 57 57 56 57 57 57 56 56 56 57
81 82 84 81 85 83 83 86 88 86 89 96 91 90 91 88 86 85 75 64 63 60 60 56 55 55 56 56 56 57 58 58 59 60 61 61 61 60
80 82 84 82 87 89 90 91 87 82 83 82 90 81 78 76 78 74 67 62 50 54 56 58 57 54 54 56 57 58 61 63 64 64 63 62 62 61
85 84 84 84 86 89 87 84 79 78 80 81 82 83 77 73 68 64 58 56 53 45 53 58 62 61 60 59 58 62 65 66 64 62 62 63 62 60
90 87 88 84 83 80 78 82 79 75 74 82 80 73 72 63 60 58 54 52 50 57 53 49 50 49 49 60 63 64 63 64 65 65 64 64 63 61
89 85 80 84 76 74 72 74 68 70 86 80 85 68 65 59 58 56 59 59 50 59 60 52 56 52 52 52 62 64 65 66 66 66 66 61 64 64
96 96 86 73 73 71 76 74 70 74 67 62 60 60 61 58 68 80 68 73 62 60 64 56 55 52 52 50 65 69 68 66 62 62 64 65 65 66
77 78 76 74 67 68 67 73 66 68 63 58 57 60 59 61 61 72 69 71 68 62 65 74 58 56 53 54 70 69 67 62 62 64 64 66 66 67
69 71 68 65 68 63 66 75 59 57 68 70 66 68 68 66 68 69 76 81 67 61 64 70 67 69 63 57 50 63 65 65 65 65 66 68 69 68
67 66 67 59 57 70 56 52 59 56 72 66 57 60 70 74 76 66 76 88 84 81 70 83 79 75 81 60 60 57 52 60 67 67 70 71 71 64
56 56 59 60 55 58 66 52 57 62 72 59 59 66 68 68 68 69 72 91 92 88 67 81 92 81 81 77 66 64 61 58 54 59 68 72 73 72
54 56 58 60 52 57 66 63 71 71 58 61 66 71 75 78 78 76 74 80 81 90 84 94 93 91 89 84 78 66 67 67 66 69 67 73 76 74
54 62 65 61 56 56 60 61 72 61 61 70 75 82 82 83 89 83 82 86 84 85 91 88 90 89 93 90 87 81 84 74 73 86 89 84 78 73
64 65 57 59 61 61 65 65 60 60 66 73 78 78 80 82 80 78 86 82 88 84 84 87 91 94 92 87 88 90 80 92 79 80 84 85 83 77
67 54 46 49 56 59 64 65 68 69 81 77 80 77 75 76 78 81 87 90 91 90 87 81 82 82 88 93 92 83 82 85 83 86 87 90 83 71
69 60 54 52 58 59 63 66 70 74 76 80 80 81 84 85 86 86 92 93 94 88 89 86 86 86 82 78 87 87 81 86 85 86 86 90 88 69
71 72 70 64 64 70 72 78 80 78 89 89 87 86 87 89 86 86 87 91 89 87 88 88 91 94 95 90 67 72 93 84 85 80 77 80 86 81
77 78 76 71 69 71 73 82 84 84 89 90 90 90 92 91 89 86 86 92 90 89 90 88 93 94 95 91 92 77 68 87 84 86 83 76 74 74
73 70 67 69 72 76 77 80 85 88 91 92 92 92 91 92 88 84 84 83 84 86 91 87 84 76 92 92 92 79 75 69 76 88 88 88 84 80
78 77 74 74 78 81 83 85 87 88 90 90 91 92 92 92 89 86 78 85 86 88 89 87 85 89 94 91 91 88 82 74 68 70 71 77 91 92
79 79 81 83 85 85 86 86 87 85 87 89 88 88 90 92 85 82 78 81 87 89 85 86 82 83 91 91 92 89 89 85 78 80 79 69 72 74

GFSNE_sfc_rhum_090.txt.gz
RH
93 93 91 87 85 86 90 90 90 77 75 79 75 77 86 88 91 83 85 86 85 82 82 80 77 77 78 72 70 69 68 66 65 64 63 62 62 62
93 89 86 82 82 83 85 83 85 88 91 83 87 82 83 84 85 83 83 84 83 81 79 77 77 75 74 70 68 64 61 60 59 58 56 54 54 54
80 76 78 79 84 84 85 78 78 81 89 95 90 82 81 77 71 71 73 71 66 74 72 69 67 65 64 60 57 57 57 58 58 58 55 54 59 61
74 75 78 77 79 77 74 77 80 80 85 93 88 83 82 78 72 74 66 56 57 60 60 58 57 57 57 56 57 58 58 58 58 60 58 58 58 59
71 72 73 74 80 84 82 84 81 77 78 80 85 73 70 65 66 62 56 52 42 49 52 53 55 54 53 56 57 58 59 62 64 64 64 62 61 60
73 74 75 76 78 80 79 77 71 70 72 75 77 77 66 62 60 56 53 46 44 37 45 52 58 58 61 59 58 59 64 65 63 61 61 62 63 61
80 75 76 78 77 72 71 74 72 68 67 79 78 68 69 61 56 50 46 42 41 45 41 38 41 41 42 51 58 63 61 61 63 66 65 64 64 62
86 82 80 79 76 75 74 68 60 64 74 73 77 61 53 48 47 46 49 51 45 48 48 42 45 43 43 43 54 63 64 66 67 66 67 63 61 63
99 96 78 68 70 67 71 69 71 67 59 48 46 42 46 45 63 74 59 61 50 47 54 50 44 43 43 39 55 67 69 69 67 61 63 64 65 65
71 64 59 55 55 54 51 61 60 54 51 42 45 47 48 51 53 69 60 57 56 51 55 70 47 49 44 45 60 70 68 68 63 64 64 64 66 68
57 58 58 58 63 62 60 66 51 62 68 68 69 70 68 67 61 59 72 72 61 52 54 62 59 63 56 52 44 61 64 64 66 66 66 67 69 70
53 54 58 50 68 56 42 44 50 47 55 54 52 58 61 70 70 59 66 92 81 80 64 78 77 73 84 56 54 52 48 52 60 66 63 69 71 62
53 55 54 60 57 65 49 37 38 46 66 49 46 50 53 57 57 59 64 90 90 86 65 76 87 83 81 77 63 60 58 55 51 54 58 62 67 71
42 42 45 59 55 58 61 59 70 64 48 48 54 59 63 68 71 71 68 74 73 88 80 95 90 89 90 85 78 64 64 64 64 64 63 66 70 67
42 48 62 65 54 55 60 61 70 55 50 58 63 74 76 80 89 87 85 86 95 87 95 96 89 89 93 89 86 80 80 74 74 88 87 83 76 70
61 61 54 50 55 45 56 63 59 51 53 62 66 69 75 83 80 77 82 82 86 84 91 91 89 89 90 84 86 85 80 88 80 83 86 82 81 77
57 50 45 45 51 49 51 52 51 52 64 62 73 74 72 75 77 78 81 84 89 86 84 80 82 82 84 89 91 80 79 86 87 84 84 88 83 71
56 48 40 38 40 39 44 49 52 60 63 72 75 76 80 81 82 80 82 86 88 84 84 82 83 84 79 76 84 87 79 85 82 83 82 87 84 68
64 54 53 51 48 49 52 58 68 64 90 86 84 84 83 82 83 81 82 84 85 82 83 83 87 89 93 88 66 78 90 84 84 82 79 82 84 78
65 66 68 62 57 58 61 68 71 72 82 82 84 84 85 85 85 83 81 86 84 83 84 82 87 89 92 90 90 77 71 87 84 84 82 76 73 69
67 70 65 62 61 65 68 70 74 77 81 85 84 85 85 85 83 79 77 72 75 80 86 83 80 72 85 88 92 80 76 72 78 89 87 89 86 79
64 63 62 64 68 74 76 76 78 78 81 83 84 84 82 82 82 79 74 78 74 76 80 81 78 82 89 90 89 85 79 70 65 68 70 76 91 93
71 70 72 77 81 81 81 80 82 80 81 83 83 83 82 83 74 73 72 72 75 78 76 78 74 76 80 90 88 86 86 83 76 77 77 66 69 74

GFSNE_sfc_rhum_093.txt.gz
RH
98 96 93 91 89 90 92 93 95 94 95 84 86 82 86 88 88 84 87 86 84 82 82 80 78 78 73 71 69 68 65 64 62 62 61 61 58 57
96 95 94 91 88 90 90 89 92 96 90 88 89 85 83 82 84 83 82 81 81 78 77 77 76 74 72 68 65 61 59 59 59 59 57 55 53 53
90 89 88 82 88 85 89 86 88 91 98 98 93 84 85 81 75 76 74 72 68 69 69 66 64 63 62 60 59 59 59 60 60 60 57 55 57 59
80 81 84 78 82 82 84 83 86 86 91 95 89 87 86 77 72 74 64 56 58 62 64 63 63 62 60 59 58 57 56 56 58 61 61 56 58 56
76 76 78 80 83 89 88 92 90 84 88 90 89 76 73 70 74 69 62 61 43 48 47 49 50 52 53 55 56 57 60 61 63 64 63 61 61 61
76 76 77 79 84 87 86 85 79 81 82 87 86 85 80 72 75 72 69 60 57 38 46 51 49 55 57 56 55 57 60 64 62 59 59 61 62 60
82 79 80 80 78 72 75 80 79 79 80 88 87 83 86 80 74 65 63 58 61 60 59 54 56 60 59 54 57 57 58 58 60 64 65 65 64 63
86 83 80 80 76 73 71 70 70 78 86 95 95 90 70 66 63 62 70 79 76 66 67 62 60 62 58 61 60 58 62 65 66 66 66 66 62 62
100 97 82 74 75 74 70 69 68 66 63 67 67 58 61 57 86 86 73 82 72 68 70 72 62 62 60 44 52 60 65 68 67 64 62 64 64 64
83 77 71 67 62 61 58 73 69 63 59 43 60 58 64 65 71 82 74 69 69 67 69 90 67 69 64 64 60 63 69 68 66 62 65 65 65 66
64 59 58 57 64 57 71 75 69 74 66 69 70 68 65 65 67 74 91 90 86 70 72 81 83 86 80 74 67 58 62 63 62 66 67 66 67 68
62 64 54 60 58 54 64 60 62 65 68 73 75 68 70 75 69 72 88 97 95 95 86 93 84 94 97 80 74 73 71 53 54 59 65 62 64 82
60 60 62 60 64 59 46 48 50 57 64 58 56 62 65 72 72 73 78 90 89 94 80 91 89 82 86 91 92 84 82 77 76 73 62 61 62 69
54 57 62 61 57 62 56 59 59 57 60 58 65 74 79 87 88 89 82 88 84 90 90 96 96 95 93 87 87 93 94 90 88 88 89 77 71 70
49 48 50 60 56 59 61 62 70 70 60 74 82 91 93 96 95 94 92 91 94 92 91 95 97 94 96 94 92 86 89 94 86 93 88 86 86 86
54 70 65 65 62 54 58 67 74 67 69 82 86 92 94 91 92 89 93 93 95 89 88 96 96 97 96 88 88 87 82 94 95 86 88 82 80 80
64 66 63 59 63 58 60 68 68 62 77 79 89 90 88 92 88 86 93 95 96 88 89 83 91 90 86 90 92 89 92 92 93 89 85 84 84 76
62 55 52 51 53 54 53 56 61 64 78 88 89 92 93 94 87 86 91 95 95 88 88 90 92 90 87 88 86 94 93 93 91 86 82 90 86 84
65 62 63 62 60 64 71 77 79 79 91 93 93 94 95 95 84 84 87 86 93 91 90 90 95 97 92 94 87 77 96 96 96 93 92 90 90 85
72 76 73 72 73 73 76 83 88 90 91 92 93 94 95 95 95 93 89 90 88 87 85 88 92 95 96 94 95 91 76 95 93 92 91 87 82 71
78 77 75 79 78 80 82 84 87 89 89 91 92 93 93 94 94 93 93 77 81 91 92 88 89 72 98 97 96 87 83 74 78 90 93 94 90 82
72 73 76 78 79 81 84 86 88 86 89 91 92 92 91 92 92 91 89 91 90 90 90 94 92 94 92 95 88 84 85 82 74 72 72 75 91 93
76 74 75 76 80 82 85 87 87 88 88 89 89 90 91 92 89 86 88 88 90 92 92 90 93 93 89 88 86 92 88 85 82 83 82 68 70 76

GFSNE_sfc_rhum_096.txt.gz
RH
98 98 98 98 97 97 96 95 96 98 99 93 98 90 94 93 90 88 89 85 84 82 82 81 80 76 74 72 70 67 64 63 61 60 58 57 55 54
98 97 97 96 96 96 96 95 96 97 97 95 96 92 89 90 87 86 87 83 80 79 78 76 75 74 71 68 64 62 61 61 60 59 57 55 53 60
95 94 94 92 95 95 95 94 96 96 99 100 96 90 90 89 86 84 79 80 74 70 68 65 64 64 63 63 63 62 62 62 61 58 56 55 56 54
90 90 92 90 94 92 92 92 94 94 96 98 95 93 92 84 80 87 66 58 61 66 66 66 65 63 61 61 60 58 56 57 60 61 59 55 55 56
86 85 86 88 91 93 95 96 96 94 95 95 98 85 81 78 80 80 77 68 49 52 47 48 51 51 52 54 55 55 60 62 62 63 63 61 60 60
85 85 86 89 93 95 95 94 92 95 94 95 92 91 87 84 88 89 80 72 66 44 47 48 44 50 50 50 52 54 59 62 61 57 58 60 61 61
89 86 90 88 86 85 91 91 91 93 96 97 94 94 95 92 90 76 78 72 75 70 72 67 66 68 69 54 57 55 56 56 58 62 64 64 65 63
95 94 87 83 77 75 74 73 77 91 93 96 98 95 88 81 75 75 84 94 86 82 81 77 71 71 70 74 58 58 60 63 65 66 66 65 64 63
100 98 88 84 84 86 72 72 70 67 69 82 87 76 73 72 87 90 82 90 87 82 82 84 75 72 73 53 54 58 60 66 67 66 63 62 64 64
91 86 90 83 81 68 80 81 80 80 74 57 72 78 79 77 82 87 83 82 82 80 80 94 89 83 83 83 58 58 66 68 67 65 62 65 65 66
75 72 70 71 61 60 79 86 83 83 69 68 69 66 65 66 68 87 96 96 95 83 89 91 94 94 91 89 82 52 54 62 60 62 66 64 66 67
77 72 63 69 64 60 79 76 88 88 86 88 80 81 83 77 68 82 95 98 98 97 93 96 97 97 97 92 88 86 83 64 58 59 61 62 62 82
74 74 73 71 60 54 49 66 66 73 70 76 76 79 86 83 86 87 92 96 97 98 87 94 97 95 94 95 97 88 88 87 88 85 72 69 66 69
71 76 74 62 62 63 54 50 53 67 76 70 75 86 90 96 96 96 90 94 96 95 94 94 98 98 98 95 93 96 96 90 93 93 94 79 74 69
58 60 67 64 60 63 59 62 62 75 70 85 92 96 97 98 98 97 96 92 97 95 95 87 97 98 99 96 94 88 85 95 88 98 95 94 79 78
52 64 64 70 65 67 69 66 88 80 80 90 95 98 98 98 98 98 97 95 97 90 92 93 97 98 100 99 92 89 89 94 97 95 93 90 86 86
73 80 76 70 78 71 68 79 84 78 85 91 97 97 97 97 98 97 96 96 98 94 95 95 95 94 95 94 96 87 91 98 96 95 92 90 86 81
74 74 73 72 72 68 66 70 78 76 85 94 97 96 96 96 96 95 95 98 98 97 97 96 96 95 91 88 84 95 97 98 97 94 92 96 91 91
73 71 73 69 66 69 74 79 83 84 93 94 94 95 97 97 92 95 93 94 96 96 96 96 97 98 97 94 90 68 97 99 98 97 98 98 95 86
79 82 80 77 75 74 80 87 90 91 92 93 96 96 97 97 98 98 96 96 97 96 92 95 96 96 96 92 92 92 69 96 99 94 94 91 87 76
84 82 82 83 81 82 84 85 89 92 95 97 96 96 97 97 98 97 97 85 90 96 95 96 92 75 93 98 97 89 92 68 75 93 97 96 91 82
81 82 82 85 85 86 86 86 90 87 93 94 93 94 95 95 96 96 96 96 93 95 96 96 96 97 98 97 91 92 85 79 74 70 70 76 92 95
81 82 84 86 86 87 87 89 88 88 89 91 93 93 94 95 94 93 94 93 94 95 96 97 97 98 96 95 88 91 91 90 86 83 84 72 70 71

GFSNE_sfc_rhum_099.txt.gz
RH
99 98 98 98 98 97 96 94 94 99 99 96 97 91 94 92 89 88 92 85 83 84 83 80 78 76 75 73 71 68 66 64 61 60 59 57 55 53
99 99 98 98 98 98 98 98 97 96 98 94 97 95 92 92 87 88 89 85 81 80 79 77 75 74 71 68 66 63 63 62 61 59 57 55 54 59
97 98 97 95 97 98 97 95 97 97 99 100 96 93 94 91 88 85 84 81 75 71 69 68 66 66 65 65 65 64 64 63 61 58 56 55 57 55
96 96 97 94 95 94 94 93 96 96 97 99 96 94 92 88 86 84 66 62 68 68 68 68 67 66 64 63 61 59 57 58 62 62 58 56 55 56
90 91 91 92 95 96 96 96 97 94 94 95 98 88 84 81 81 77 74 62 53 55 52 52 53 53 54 56 56 57 62 62 62 63 63 61 60 59
88 88 90 91 93 94 95 94 94 97 95 93 93 91 86 81 86 85 80 76 65 48 50 48 46 49 49 50 53 55 59 62 61 57 58 60 61 61
90 87 90 90 89 88 91 96 95 96 98 96 96 92 92 92 92 80 87 78 75 74 72 70 70 72 69 56 58 57 56 56 57 61 63 63 64 64
95 92 89 85 79 76 76 78 88 95 96 98 98 97 94 92 81 77 82 92 86 84 78 70 76 73 75 79 61 58 58 61 64 65 65 65 64 63
100 97 92 86 84 84 76 74 74 74 79 90 93 92 81 77 81 88 81 91 88 83 79 82 83 75 82 62 54 56 58 65 66 66 65 63 63 64
93 90 90 90 86 82 77 81 84 79 68 61 75 74 76 82 78 82 79 83 86 82 83 94 94 87 89 86 59 56 61 68 68 67 64 64 65 66
86 81 77 80 72 69 81 84 87 88 69 70 66 65 66 67 75 86 96 96 95 86 92 91 96 95 94 94 82 56 56 59 59 60 62 62 63 67
73 70 69 68 62 66 83 84 87 93 90 81 88 84 83 76 72 86 94 97 98 98 93 95 98 98 96 92 91 87 87 68 66 64 62 63 64 85
76 74 79 65 63 63 70 80 80 83 77 76 80 92 85 86 89 93 91 95 98 99 90 93 98 98 98 97 97 90 92 88 88 85 77 74 71 70
72 75 76 71 63 57 56 58 57 71 77 73 79 87 93 96 97 95 91 95 95 94 96 93 98 98 99 98 97 96 97 95 95 92 92 81 71 68
71 73 70 64 64 67 55 54 61 78 74 84 88 94 96 96 97 97 96 96 96 94 94 92 96 96 99 99 99 98 92 95 92 98 98 97 94 84
59 69 68 74 68 71 72 66 84 76 78 84 91 97 98 99 98 98 98 98 97 92 94 93 94 97 100 100 100 97 94 94 98 98 98 98 97 91
73 78 79 79 82 75 70 78 90 88 86 87 95 97 96 97 97 99 97 97 96 96 91 97 95 95 95 96 98 94 91 90 98 96 98 96 97 92
73 79 79 76 76 78 69 69 84 82 83 86 94 95 96 97 97 98 98 97 98 99 98 97 94 98 98 95 88 90 89 95 97 96 98 99 93 92
79 81 81 79 74 75 77 80 81 85 90 91 93 95 96 97 92 97 98 98 100 98 98 97 97 99 99 98 90 71 96 97 95 98 98 98 96 89
88 85 78 75 74 74 77 83 84 87 88 89 93 93 95 97 98 98 97 97 98 98 98 99 98 99 99 97 96 94 74 98 98 98 95 90 86 76
85 83 80 78 78 80 79 82 83 86 86 89 90 93 95 96 97 95 96 86 91 98 97 96 90 76 95 98 99 94 95 71 78 97 97 96 96 95
81 83 82 84 85 85 86 85 88 84 89 90 90 92 94 95 94 96 96 95 94 96 96 96 97 99 100 99 94 92 92 87 77 68 69 75 94 94
80 83 83 86 87 88 88 89 87 86 87 88 91 93 93 96 92 92 92 93 93 95 96 97 98 98 96 95 88 93 92 92 87 87 87 74 70 71

GFSNE_sfc_rhum_102.txt.gz
RH
99 99 99 98 98 98 96 94 94 99 98 98 98 92 94 92 89 90 92 85 84 84 82 80 78 78 77 76 74 72 69 66 63 62 61 57 55 54
99 99 99 98 98 98 98 97 97 97 99 96 98 96 93 91 89 90 90 86 83 81 79 78 76 74 72 70 68 66 65 64 63 60 58 55 55 57
98 98 98 97 99 98 98 98 98 98 98 100 97 95 96 93 90 88 84 80 79 73 70 70 69 68 68 68 68 67 66 66 63 59 57 55 58 57
97 98 98 98 98 96 97 96 97 96 97 99 97 97 94 91 90 83 70 64 73 68 68 69 69 68 68 67 65 62 61 61 64 63 59 57 57 56
95 95 95 95 97 97 97 97 97 96 94 96 98 89 86 86 87 78 68 62 58 60 59 60 58 58 60 60 60 62 62 63 62 63 62 61 60 59
91 92 92 94 95 96 97 96 94 97 95 94 94 92 87 84 86 83 80 71 68 51 54 51 48 50 51 53 55 57 58 61 61 59 58 59 61 61
91 88 90 92 92 90 94 96 95 96 98 97 96 93 93 92 90 84 84 83 78 75 70 68 70 72 70 58 56 57 56 57 57 59 63 63 64 64
94 90 89 89 86 83 83 85 88 96 98 98 100 96 92 88 84 81 87 92 84 81 73 70 76 74 76 76 62 60 58 61 63 64 65 65 65 64
99 97 91 85 85 87 78 78 80 80 83 92 94 92 93 85 85 88 81 88 83 82 75 84 82 79 83 66 57 56 58 64 65 65 66 65 63 63
94 92 90 87 85 78 76 83 84 73 74 77 91 89 78 80 78 79 78 81 84 83 82 96 94 86 91 88 62 55 58 66 68 68 66 65 65 65
91 85 84 82 78 71 79 88 91 89 69 69 69 68 70 70 75 80 89 88 93 87 90 88 96 94 93 95 83 61 63 59 60 63 59 63 62 66
76 74 81 74 73 69 77 82 88 93 89 88 91 84 78 73 70 75 88 93 97 98 92 95 98 97 95 92 92 89 87 73 73 69 69 67 67 90
78 75 74 70 68 65 73 84 78 91 78 92 89 88 87 87 90 90 86 95 98 99 90 92 99 98 98 97 98 92 89 85 86 86 75 74 70 75
76 74 71 71 64 63 67 71 67 76 79 75 86 89 90 93 96 94 91 93 93 93 95 93 98 97 99 99 97 97 98 96 95 89 91 85 73 70
67 68 68 72 71 67 57 55 57 83 76 83 88 94 95 95 97 96 95 94 95 96 95 94 96 99 99 99 98 98 94 96 98 99 99 97 98 95
65 75 73 73 72 76 70 64 83 78 79 82 89 94 97 98 96 97 98 99 97 96 95 95 93 95 100 100 100 100 98 97 98 98 98 98 98 98
67 72 78 86 87 82 78 80 89 83 84 86 93 96 94 95 95 98 97 98 97 97 96 95 95 92 97 96 99 98 99 92 88 98 98 99 98 95
73 81 81 83 85 80 74 73 84 86 90 88 94 94 94 96 97 99 98 97 98 97 98 98 97 97 97 94 90 97 87 89 93 98 99 100 96 93
75 83 87 88 87 84 86 85 82 88 94 93 93 94 96 96 92 98 98 98 98 98 98 98 97 96 97 96 90 72 96 97 99 100 98 98 94 86
84 90 89 84 82 83 83 87 88 92 92 92 92 92 94 95 98 98 97 95 96 99 99 99 99 98 97 96 96 94 82 98 99 99 97 92 87 77
92 96 90 84 81 83 84 86 87 89 90 91 91 90 92 94 93 94 94 89 91 97 97 97 92 77 95 97 98 98 93 74 82 96 97 98 96 97
86 87 89 88 88 87 88 87 89 85 88 89 88 89 89 90 91 93 93 95 92 94 92 94 96 97 99 97 94 92 97 90 75 68 69 77 96 97
81 83 85 88 88 88 90 90 88 86 85 85 87 87 89 94 87 88 92 92 92 94 94 96 96 96 97 96 91 94 94 95 92 88 88 73 72 72

GFSNE_sfc_rhum_105.txt.gz
RH
99 99 98 98 98 98 98 97 96 99 98 98 98 97 97 94 90 92 94 86 84 84 82 81 80 79 77 76 75 74 73 70 67 66 64 60 57 56
99 99 98 98 98 99 99 98 98 97 99 97 98 97 94 93 90 90 90 89 84 81 80 80 77 74 72 71 70 69 67 66 65 63 60 58 59 58
97 97 97 97 99 99 99 99 99 98 99 100 99 97 97 94 92 90 84 84 82 76 74 73 72 70 69 70 70 69 69 68 65 61 59 58 60 58
97 97 98 98 98 98 98 98 98 98 97 99 98 99 96 93 90 89 78 65 76 73 71 72 72 71 70 70 68 66 65 65 68 64 62 60 60 57
96 97 97 96 98 98 97 98 97 97 95 97 99 94 93 94 90 77 71 65 63 73 70 69 66 65 65 64 64 63 66 65 64 64 63 62 60 59
94 94 95 96 97 96 97 96 97 98 96 95 96 94 90 88 89 84 80 67 64 51 56 55 54 55 56 56 57 59 60 61 60 60 60 60 60 60
93 93 94 92 91 91 96 97 97 98 98 98 97 94 97 97 94 87 86 74 70 74 69 68 69 69 71 60 58 58 55 56 57 57 62 64 65 65
96 94 92 87 86 84 85 85 89 96 98 100 100 97 92 92 88 84 84 82 82 82 69 71 73 71 74 77 64 60 59 59 59 62 64 65 65 65
99 97 92 84 86 88 83 82 81 82 85 93 95 93 92 86 86 88 80 83 80 84 71 74 80 76 80 68 62 58 57 60 62 63 67 67 65 64
96 94 93 89 86 82 78 82 78 71 78 88 92 90 89 88 83 84 79 81 83 83 78 95 89 80 86 86 69 57 57 64 68 69 68 67 65 65
93 87 88 86 83 78 81 86 82 85 68 71 73 72 70 74 75 77 87 85 91 84 86 86 93 92 89 90 82 63 64 59 62 65 66 62 64 62
85 76 85 82 82 74 74 81 86 90 90 90 93 86 82 77 68 74 85 88 97 96 89 92 95 94 96 91 91 88 86 76 72 70 68 67 68 92
83 80 75 82 78 74 73 74 73 84 83 94 93 91 89 89 91 88 85 93 96 98 88 91 99 98 97 97 96 93 89 85 85 85 73 71 69 75
80 77 74 74 74 70 76 73 67 78 84 90 88 93 91 94 96 96 91 92 92 93 91 92 98 97 99 99 96 97 98 96 94 89 90 84 72 72
73 70 68 69 75 67 61 59 63 89 78 87 94 95 95 96 97 96 95 94 96 95 93 95 96 100 98 99 98 98 96 97 98 99 99 98 98 94
71 79 71 70 69 79 76 70 84 85 84 87 89 92 96 98 97 97 98 98 97 97 96 94 93 95 100 99 99 99 99 97 98 99 98 98 98 98
78 74 78 85 89 85 83 84 88 85 90 87 94 96 92 95 97 98 98 98 97 97 97 98 96 93 96 98 100 99 98 99 97 96 99 99 97 94
88 77 81 81 85 87 83 78 86 86 89 89 92 92 94 96 96 99 98 97 96 95 94 94 99 99 98 94 90 99 99 96 87 92 99 100 98 92
92 86 83 88 84 90 95 92 90 88 95 93 92 94 96 96 91 97 97 96 95 95 95 96 98 97 99 98 90 77 96 93 95 99 97 98 98 89
95 91 88 88 90 92 92 91 91 92 93 93 95 93 94 95 97 97 96 96 95 96 98 99 98 96 95 95 96 94 81 97 98 99 98 91 84 74
94 95 92 91 89 89 89 91 92 92 91 92 92 92 92 93 93 93 95 90 91 94 96 96 93 80 97 96 98 96 94 80 85 95 96 98 97 97
87 94 95 94 92 91 90 90 91 88 89 91 90 92 91 91 90 90 92 92 91 93 92 97 98 98 99 96 93 94 95 89 75 69 72 82 96 99
90 89 91 93 92 91 92 92 91 90 88 88 89 89 90 93 87 86 88 90 91 93 95 98 98 97 95 94 92 93 96 95 92 90 88 75 73 73

GFSNE_sfc_rhum_108.txt.gz
RH
99 98 99 98 98 98 98 98 98 97 98 98 98 95 97 96 93 94 95 86 84 84 81 80 82 79 76 77 85 86 84 82 77 70 66 63 60 62
98 98 94 98 98 98 99 99 99 98 98 96 98 97 96 94 91 92 93 91 83 82 81 79 78 76 73 72 72 72 73 71 68 67 63 62 63 62
96 94 96 95 98 98 98 99 99 100 99 100 99 98 98 97 95 90 88 87 85 78 76 74 74 73 72 72 72 71 70 69 67 64 62 63 63 61
97 97 95 97 97 97 98 99 99 98 98 99 99 99 98 95 93 90 74 69 81 76 74 74 75 75 74 73 72 70 69 69 69 66 68 65 63 60
97 97 97 97 98 98 98 99 98 98 96 97 99 96 96 96 94 82 74 75 71 80 74 74 72 70 68 67 67 69 71 69 68 67 66 64 62 59
95 95 95 96 98 98 98 97 97 98 96 97 97 96 93 95 91 86 81 69 64 55 61 56 62 60 62 61 64 68 66 62 61 61 63 64 62 61
94 94 93 91 90 91 97 96 97 98 99 99 98 95 97 99 97 91 88 74 69 68 66 67 70 69 74 59 62 59 57 59 59 59 62 66 66 64
95 94 93 88 89 83 83 84 90 97 98 100 100 98 95 95 94 90 86 84 82 75 64 70 70 70 70 79 61 58 57 57 58 63 66 65 65 66
97 96 94 87 87 88 82 82 82 83 86 94 96 94 94 91 90 92 85 86 80 79 66 72 77 72 76 67 65 61 59 59 61 65 67 67 68 67
96 96 96 94 88 89 82 84 81 76 76 87 94 92 88 87 85 88 81 78 78 77 75 90 84 77 82 82 72 60 59 62 67 68 66 69 67 66
95 87 88 89 82 83 83 87 81 82 74 72 75 75 73 81 78 79 84 83 83 81 82 84 91 90 85 84 81 58 58 61 65 70 66 68 66 64
90 78 73 86 81 80 77 80 85 84 87 85 83 87 88 81 71 80 86 88 95 95 85 90 94 92 95 89 88 84 83 74 69 64 64 61 62 86
93 91 78 71 82 81 78 73 73 79 83 85 86 90 88 88 88 87 81 94 95 97 86 90 98 95 94 96 91 89 86 82 81 83 73 70 70 80
82 88 86 72 74 76 77 80 70 73 85 84 85 94 93 98 96 94 90 91 95 93 89 92 97 96 97 97 93 94 95 91 89 87 88 82 72 70
76 73 68 67 70 77 65 69 61 86 77 86 90 97 96 96 98 96 95 95 96 95 92 94 96 97 97 97 97 97 96 94 95 98 99 97 95 90
82 83 77 69 70 81 83 73 75 85 82 86 97 98 98 99 97 96 98 97 98 98 94 95 94 94 98 98 97 98 95 95 98 98 98 98 96 95
84 80 78 84 92 93 89 87 85 86 95 94 95 96 96 97 95 98 98 98 98 98 99 98 92 91 96 97 100 99 96 97 96 97 98 99 96 91
91 81 87 87 91 94 94 88 88 87 93 91 93 94 96 98 97 98 98 98 98 98 97 96 99 98 96 92 88 98 99 98 97 91 94 98 96 90
98 91 94 90 91 95 96 95 94 93 96 96 96 96 97 96 91 97 98 98 98 97 95 95 98 97 98 97 89 78 97 98 93 93 97 97 99 89
99 96 92 92 93 95 95 96 96 97 95 94 96 94 94 95 98 98 96 96 96 96 96 97 97 95 95 95 94 93 81 98 98 99 98 91 84 74
96 95 96 94 93 95 95 95 94 95 95 93 94 94 94 94 94 93 95 89 91 94 95 94 91 79 96 96 96 97 94 82 88 95 96 98 96 91
96 91 92 95 94 95 96 94 95 93 94 94 93 92 93 92 92 92 92 93 90 92 91 94 96 97 98 94 93 96 97 92 78 77 78 81 95 96
98 96 93 96 97 96 95 95 95 93 92 92 92 92 92 94 89 88 88 89 86 90 92 95 96 96 94 95 92 95 97 95 92 92 85 72 71 74

GFSNE_sfc_rhum_111.txt.gz
RH
94 94 95 94 93 93 95 98 98 96 93 88 87 84 84 88 96 88 95 94 86 82 80 81 80 79 78 81 86 87 85 84 80 75 69 65 64 65
88 89 86 84 84 86 88 91 93 93 92 88 86 87 86 89 89 89 93 94 88 81 80 80 79 77 75 74 79 85 87 87 82 75 66 65 68 66
85 84 80 78 86 85 87 89 95 98 97 99 94 93 97 94 95 92 92 86 86 80 76 76 74 75 76 74 73 74 74 74 70 67 65 67 67 63
84 84 78 83 85 84 84 88 93 95 100 99 96 97 95 92 89 90 78 75 82 78 74 75 75 76 77 76 76 73 72 70 68 65 66 67 67 61
82 83 84 84 87 87 88 90 92 94 98 97 98 95 96 95 95 87 78 79 76 83 75 75 75 75 74 71 70 72 74 71 69 71 69 67 65 60
82 81 81 83 86 87 89 90 91 92 94 96 96 96 93 94 90 90 86 76 69 58 64 65 68 70 69 69 70 72 69 66 64 66 67 65 61 60
82 80 82 84 85 83 87 87 88 92 95 98 98 96 98 99 98 92 92 86 77 69 65 66 66 64 64 62 64 62 62 61 60 60 61 63 64 64
85 82 80 82 81 82 82 82 84 89 96 98 100 98 94 94 96 94 90 86 85 65 60 65 62 57 56 60 60 58 56 57 59 61 66 67 68 68
92 91 85 79 80 76 78 79 80 83 86 88 93 91 91 87 93 94 86 84 83 73 60 63 58 53 57 54 65 61 61 61 61 66 67 68 68 68
85 86 84 82 80 81 80 80 82 77 82 75 90 87 88 86 87 90 84 79 74 70 65 77 60 54 59 60 78 63 60 62 64 65 68 70 69 67
80 78 78 82 80 82 82 83 78 80 74 82 78 77 77 82 80 82 84 85 80 72 70 61 69 67 66 64 66 64 59 60 65 68 68 70 69 67
77 73 73 72 84 81 78 70 74 78 83 81 80 80 81 79 74 75 84 97 89 86 72 77 78 77 84 72 73 71 70 70 68 68 66 69 68 66
78 75 70 73 74 80 80 69 65 70 82 78 79 79 78 78 78 76 73 97 97 91 72 80 92 83 86 84 76 74 70 69 68 71 74 68 66 70
83 74 71 74 74 77 74 81 75 68 80 78 81 83 82 84 84 86 81 83 80 96 83 96 95 90 90 86 79 81 79 73 69 68 68 69 70 70
81 75 72 69 68 70 75 73 72 80 75 80 82 87 87 88 93 91 93 94 96 94 91 88 92 92 89 88 82 82 86 84 79 87 86 83 74 68
88 84 76 69 69 71 77 71 67 72 77 77 77 81 87 91 87 87 90 90 91 91 90 88 89 89 90 83 84 84 83 90 89 86 85 86 83 76
85 79 75 68 68 72 77 75 70 69 81 77 79 82 82 86 86 88 89 90 87 89 91 88 86 84 85 90 91 84 83 88 87 89 89 88 84 73
86 83 82 76 72 68 73 75 74 75 79 84 82 82 85 89 90 91 91 90 88 86 88 90 92 90 88 82 82 86 85 87 86 87 86 93 85 70
97 95 93 88 82 77 76 80 83 81 92 92 90 89 89 89 89 92 92 90 90 87 88 90 93 91 90 79 70 80 89 88 85 85 82 88 83 72
97 98 97 92 88 84 82 86 85 85 88 90 92 92 92 91 92 92 91 92 90 90 90 90 91 92 90 85 82 76 81 91 86 86 86 80 74 72
97 97 94 91 87 88 87 87 89 90 92 92 92 93 93 93 92 89 89 86 87 89 92 90 89 78 89 87 89 78 75 81 83 90 88 85 75 70
99 97 94 93 94 94 93 91 93 92 93 93 91 91 92 92 91 89 86 89 86 90 89 86 89 90 95 92 89 81 77 74 74 83 78 74 86 86
99 98 97 95 96 97 97 96 95 93 93 94 93 91 91 94 86 84 84 85 84 88 88 89 90 90 91 93 90 89 86 84 76 78 79 76 76 79

GFSNE_sfc_rhum_114.txt.gz
RH
80 82 83 84 87 85 86 90 86 81 73 57 70 71 72 76 81 81 84 96 90 83 83 82 80 79 81 84 85 86 89 87 87 81 71 68 68 66
79 76 75 77 72 74 77 78 80 90 83 67 72 74 74 77 83 78 80 94 91 88 88 84 79 77 76 80 83 87 88 84 79 76 73 73 71 68
72 70 70 66 68 69 75 76 83 84 93 91 85 81 91 86 86 85 91 87 86 86 82 79 75 76 76 76 79 82 87 88 85 83 78 72 71 66
67 66 65 67 68 73 70 75 84 81 97 98 92 91 91 87 87 90 84 77 82 81 78 75 76 77 77 78 78 76 78 80 79 77 74 73 68 63
65 66 69 69 74 78 77 83 82 83 85 95 94 92 92 93 96 89 82 87 85 89 80 78 77 77 76 75 74 76 76 74 74 77 76 71 66 62
69 68 68 69 70 73 75 73 77 83 85 94 94 94 88 91 91 92 90 84 84 75 80 78 74 74 73 71 75 77 74 71 71 71 70 69 65 59
73 68 72 78 82 78 72 75 78 81 82 95 98 94 96 98 97 95 96 92 85 82 80 77 73 68 68 72 73 71 66 63 62 65 67 64 62 62
71 70 68 78 74 79 83 83 82 81 91 95 99 98 92 92 96 97 93 94 96 76 79 75 62 63 65 62 61 57 58 60 60 61 62 63 64 65
78 78 72 67 73 65 70 75 74 80 82 87 95 87 89 84 94 98 92 91 92 77 69 71 62 61 59 46 63 59 58 58 59 62 68 68 69 69
70 71 69 66 67 72 71 74 72 67 72 79 78 82 85 82 88 93 90 84 77 71 71 90 64 57 53 49 75 64 63 63 64 66 69 69 70 69
65 64 65 67 74 79 80 85 68 67 68 84 84 86 81 81 85 88 92 91 86 79 71 76 72 66 58 53 58 67 63 63 65 66 67 71 71 69
64 60 74 67 76 82 77 72 71 62 69 74 74 76 78 80 78 79 91 100 94 90 77 86 79 72 83 66 66 64 62 62 63 68 68 69 72 64
66 66 59 72 73 79 81 74 71 58 68 68 70 75 74 76 78 79 82 100 100 99 75 80 99 81 90 80 72 73 68 69 70 70 69 70 71 67
73 68 65 70 74 76 77 79 76 67 62 64 72 74 78 82 85 85 83 85 85 97 84 98 100 99 100 86 81 78 76 70 68 71 70 70 71 71
83 78 73 71 70 69 75 73 77 68 66 69 73 81 85 90 97 94 94 97 100 96 99 100 100 100 100 99 87 81 86 83 76 88 88 85 78 72
84 85 77 73 68 62 64 70 64 60 62 67 70 72 81 90 87 87 95 94 96 93 95 99 100 100 94 85 87 84 82 93 88 86 87 86 81 74
78 78 76 73 74 67 61 61 62 61 67 66 74 77 76 80 83 88 92 95 95 92 92 88 84 85 86 97 88 80 79 86 87 89 88 89 85 75
85 79 78 79 80 75 64 59 59 65 67 73 78 81 85 89 90 92 93 93 90 85 87 89 89 87 86 83 81 82 79 86 87 88 86 88 84 70
96 91 91 92 90 86 80 74 78 69 99 96 94 94 95 93 91 90 90 88 87 86 88 89 91 90 87 77 77 78 89 87 86 86 82 82 79 73
98 96 95 94 93 91 89 90 87 82 89 92 98 100 100 100 94 92 88 88 86 87 89 90 90 90 89 87 85 81 82 91 85 83 82 74 68 68
98 97 94 94 93 92 91 92 95 100 100 100 100 100 100 100 95 91 88 81 82 86 88 88 91 77 98 86 83 72 76 82 81 90 86 83 77 69
99 98 97 96 95 97 99 100 100 100 100 98 99 100 99 97 93 89 83 89 84 87 88 92 93 92 94 89 83 77 77 74 79 80 76 74 89 88
99 99 98 99 100 100 100 100 100 100 100 100 100 99 98 95 84 80 79 82 85 87 87 87 88 89 91 90 89 88 83 81 72 76 83 79 80 75

GFSNE_sfc_rhum_117.txt.gz
RH
85 84 80 82 82 83 84 88 91 85 77 67 79 76 78 80 84 81 83 94 90 88 85 85 85 84 85 83 84 84 88 90 86 85 86 79 79 73
87 82 79 79 78 78 83 79 84 90 86 70 80 80 79 77 85 83 86 94 92 90 89 88 87 85 81 81 83 86 86 90 89 86 81 78 75 71
78 74 73 69 75 76 80 80 80 90 95 86 92 86 86 87 86 89 94 92 93 88 85 83 79 78 76 78 81 85 86 87 87 88 85 81 79 76
71 70 68 66 72 73 75 76 86 88 96 95 93 93 91 86 86 92 88 80 88 87 82 80 78 78 79 80 79 79 87 89 89 86 88 82 78 71
66 68 68 69 72 83 84 86 83 83 90 98 96 92 93 94 96 90 85 90 84 92 84 82 82 80 78 78 79 80 78 81 82 84 86 80 76 70
69 68 67 69 72 74 79 78 78 81 80 83 96 96 93 91 95 95 94 88 89 80 88 87 83 79 76 76 80 81 79 76 77 78 78 78 74 63
77 70 76 80 84 82 76 78 79 81 82 93 94 96 97 99 99 96 98 96 93 92 91 86 81 81 81 77 79 75 71 69 73 74 72 68 63 61
74 72 68 81 77 77 83 83 87 86 87 89 99 99 96 95 98 98 97 99 99 90 90 87 74 79 72 76 66 66 66 63 63 64 64 63 63 67
83 83 75 66 77 68 77 77 79 78 80 86 89 88 95 88 95 99 97 97 97 87 85 89 72 73 69 58 65 62 59 60 62 63 65 65 66 68
72 73 72 70 70 74 73 80 80 75 73 76 84 80 83 86 91 94 95 91 81 77 77 94 78 74 67 63 64 62 60 60 61 63 70 70 71 71
66 66 67 69 77 78 82 92 79 74 72 80 78 79 82 84 86 92 96 96 94 86 76 84 79 79 74 69 81 70 65 64 65 67 69 70 72 72
68 64 75 68 78 81 81 78 87 76 77 81 77 78 77 79 81 85 97 100 98 95 85 90 92 90 94 80 84 85 80 65 64 67 68 70 72 83
72 72 64 74 74 74 80 85 83 71 67 81 76 79 80 82 84 83 87 100 100 100 82 95 100 95 99 96 94 89 86 88 85 80 70 69 73 75
78 74 72 69 73 74 77 74 79 77 80 76 78 80 86 92 95 95 93 94 95 99 93 99 100 99 99 97 96 96 96 86 85 90 90 75 74 73
82 82 76 71 71 71 73 75 76 90 86 87 88 94 96 98 98 98 98 100 100 98 100 99 100 100 100 98 97 97 97 96 95 97 98 97 96 90
87 92 86 79 73 69 68 74 85 84 82 88 91 94 96 98 97 97 98 97 95 94 97 97 99 99 98 98 98 97 97 99 97 98 98 98 97 95
86 92 92 87 84 81 81 75 77 80 87 86 92 94 94 96 96 97 97 91 95 93 96 97 93 94 97 97 97 97 96 98 98 97 97 97 96 92
88 88 86 87 86 83 81 78 76 74 85 89 94 95 96 96 97 93 96 98 97 96 97 91 97 97 96 93 85 96 96 97 97 96 96 97 95 88
98 93 94 91 89 89 88 90 88 89 96 98 97 97 98 90 89 97 94 97 97 96 96 97 97 97 98 96 98 77 96 96 95 96 92 91 95 92
98 98 96 95 95 95 93 93 94 95 96 97 97 97 98 97 90 89 96 96 96 96 96 97 97 96 96 97 97 96 83 95 93 93 93 90 84 70
98 98 96 96 96 95 95 95 96 100 99 99 96 97 96 96 95 94 95 84 87 96 96 94 91 77 98 96 96 94 96 84 87 94 95 94 93 90
99 99 98 98 98 98 98 99 100 100 100 99 97 92 91 94 95 94 93 94 92 92 92 96 98 95 97 96 91 90 96 94 83 79 78 79 95 95
99 99 100 100 100 100 100 100 100 100 99 99 99 98 91 91 88 93 93 92 92 94 93 96 97 94 94 94 91 93 93 93 88 92 91 79 77 76

GFSNE_sfc_rhum_120.txt.gz
RH
97 95 91 92 94 95 95 96 97 96 94 90 96 92 95 94 91 87 88 93 90 90 90 89 88 87 86 86 84 84 84 87 92 88 87 85 80 73
94 90 90 94 92 93 94 90 90 97 95 93 98 95 92 88 93 88 92 94 93 90 89 88 86 83 81 82 82 84 85 87 90 88 84 83 80 87
90 88 90 88 93 93 93 91 87 92 98 95 96 93 93 95 90 92 94 93 95 90 87 84 80 80 80 81 82 85 87 86 90 92 86 87 89 76
92 89 88 80 86 90 94 93 91 91 98 96 94 96 95 92 94 95 89 82 90 92 84 82 81 80 83 81 80 84 90 90 90 91 88 88 85 82
88 86 85 83 90 94 93 94 93 86 92 97 97 95 95 97 97 92 87 91 86 90 88 81 82 84 80 79 82 83 84 86 85 93 89 88 86 88
81 82 81 83 87 90 90 91 90 93 90 90 93 98 95 94 97 98 96 89 91 84 91 91 88 82 80 78 81 83 83 83 84 88 88 87 82 75
87 84 88 86 86 87 87 93 91 92 89 88 88 98 98 98 99 98 99 97 93 93 96 94 93 92 87 82 81 78 74 76 77 77 77 72 71 68
87 83 84 83 82 79 84 84 89 94 93 97 97 95 86 94 98 98 98 99 99 93 97 97 90 90 79 84 76 72 67 67 69 74 72 68 68 72
90 90 84 78 82 84 80 78 79 79 82 93 92 88 97 95 97 98 98 98 98 92 93 96 79 82 75 64 71 63 64 65 66 64 66 64 66 71
87 88 84 85 85 82 84 89 89 88 85 84 92 93 93 93 94 95 97 95 86 83 89 97 80 81 76 68 70 68 64 60 64 64 67 68 72 74
80 80 79 80 81 78 90 93 91 88 76 81 80 77 78 82 86 96 99 98 98 91 80 88 84 85 81 78 79 70 65 63 63 63 70 72 72 73
81 79 77 77 82 80 93 91 93 88 85 86 86 82 82 82 79 90 98 100 99 98 88 91 92 92 93 84 84 85 92 67 66 68 69 71 72 89
85 84 80 75 75 77 82 93 91 79 73 88 88 89 90 90 91 90 88 100 100 100 88 94 99 96 99 93 94 93 93 88 89 82 68 70 71 84
88 86 83 77 75 76 80 83 79 79 88 89 88 90 94 96 97 97 94 96 97 99 98 99 100 97 97 99 94 98 98 94 94 94 94 83 70 75
92 87 80 76 74 76 75 76 72 93 95 96 96 96 97 99 99 99 98 98 98 98 100 98 100 100 99 98 98 99 98 97 98 98 98 96 94 92
90 92 89 84 81 85 78 79 93 94 96 96 96 97 99 100 99 99 100 98 97 97 97 99 99 99 100 100 98 99 99 98 99 99 99 99 98 98
93 97 99 97 95 92 92 91 86 90 95 96 96 98 97 98 98 99 99 94 93 98 94 97 97 97 99 97 97 98 98 99 99 99 98 99 99 96
96 98 98 97 96 95 93 89 83 80 95 96 97 97 97 98 98 99 96 100 100 99 99 97 98 98 96 92 88 97 98 98 99 98 98 98 96 96
98 97 96 94 94 95 92 92 92 90 90 95 96 96 98 99 91 95 88 92 100 99 98 99 99 98 100 98 95 80 95 98 98 99 98 95 97 95
99 98 97 96 96 95 94 94 94 96 96 94 99 99 99 99 96 88 89 98 98 99 99 100 99 98 97 96 97 96 84 97 96 98 98 94 86 74
98 98 97 96 97 97 96 96 96 96 96 95 98 98 98 99 99 97 96 89 94 99 99 98 94 82 97 96 95 93 94 87 88 94 96 98 94 94
98 98 98 98 98 99 99 98 99 99 100 99 98 97 96 97 98 98 97 98 97 96 94 96 97 98 99 97 95 94 98 95 84 82 80 80 94 94
99 99 100 100 99 100 100 100 99 99 99 99 99 98 98 98 92 94 96 96 96 97 96 98 100 99 95 95 96 97 96 95 93 93 92 79 79 80

GFSNE_sfc_rhum_123.txt.gz
RH
97 97 97 96 95 94 96 96 92 96 94 96 97 94 96 96 92 90 90 93 90 90 89 90 89 87 86 84 82 80 82 83 85 89 85 89 82 82
98 95 95 93 92 95 95 94 93 95 95 96 98 96 95 94 91 90 92 94 92 89 88 89 87 83 79 79 80 81 85 85 86 90 85 87 81 81
95 92 90 88 95 96 96 95 95 95 97 96 98 96 96 94 90 92 93 92 94 91 87 86 83 80 79 81 82 85 88 87 87 87 87 83 83 89
96 91 88 89 93 94 96 93 95 95 96 95 95 96 94 93 97 97 91 83 90 89 88 85 84 82 82 80 83 84 86 89 93 90 90 90 90 87
93 91 91 90 94 96 96 96 95 94 95 96 95 96 95 95 96 95 90 94 87 84 87 87 83 84 80 81 84 82 84 88 90 94 92 91 91 89
94 91 88 87 93 94 95 95 94 95 93 94 95 98 97 96 98 99 98 92 94 82 90 93 92 86 82 80 82 82 84 86 90 92 92 93 91 86
90 86 89 89 88 87 92 95 94 95 95 96 94 97 98 97 97 98 99 98 95 93 97 96 96 95 92 86 83 79 76 79 82 85 84 85 88 88
90 90 88 87 87 84 85 86 90 94 95 98 98 95 91 90 96 98 99 100 99 94 98 98 92 95 91 92 82 76 70 69 77 82 82 80 75 76
88 92 88 84 88 90 83 82 82 81 84 93 94 94 93 94 96 98 98 99 98 94 96 99 86 92 83 69 76 70 70 68 67 71 78 79 76 76
85 85 81 87 88 88 92 93 93 92 88 88 93 93 93 93 95 96 96 96 93 86 94 100 84 87 80 76 74 77 71 64 65 66 69 71 75 79
82 82 82 88 85 81 91 94 92 91 80 83 86 82 78 77 82 98 100 100 99 96 88 93 88 87 84 79 74 73 72 67 63 63 65 71 74 75
86 84 82 82 83 81 93 94 95 92 91 90 89 82 81 85 79 92 98 100 100 99 90 93 92 92 93 85 85 84 87 74 65 64 64 72 74 93
87 88 85 81 83 82 86 94 92 86 82 89 92 92 91 91 92 91 93 100 100 100 89 94 98 96 99 93 91 90 94 89 91 84 69 72 71 87
85 83 84 84 81 79 83 85 83 81 88 87 93 92 95 96 97 97 93 96 99 99 98 99 100 97 98 95 88 98 99 94 93 92 92 82 72 75
87 85 83 84 79 79 78 79 79 95 96 97 97 97 97 97 99 99 99 99 99 99 100 100 100 100 98 96 94 96 98 98 99 98 99 99 96 94
89 92 86 86 83 85 85 84 93 96 97 98 97 96 99 100 99 99 99 99 97 97 98 97 98 100 99 99 99 97 98 95 99 99 98 99 98 98
95 97 99 99 98 97 94 92 92 94 97 94 97 98 98 99 99 100 99 98 97 98 98 97 98 98 99 97 99 97 98 100 99 99 99 99 97 92
98 99 98 98 98 96 94 95 95 86 90 91 93 96 96 98 98 100 98 99 95 96 100 99 97 98 97 92 89 95 98 98 99 99 99 99 98 95
99 98 98 98 98 97 96 93 92 87 91 92 92 95 96 98 96 97 92 89 92 94 100 99 98 100 100 97 93 80 96 98 99 99 98 98 98 94
99 99 100 100 100 100 96 93 93 94 92 90 92 94 97 98 99 98 95 92 89 99 100 100 100 100 97 95 96 95 85 96 97 98 98 96 92 78
99 99 99 100 100 99 96 96 96 97 96 95 94 95 97 99 98 98 96 86 91 97 98 99 89 86 97 98 97 96 95 86 88 94 97 98 97 94
98 98 98 98 98 99 100 100 99 98 99 99 97 96 97 98 98 97 99 98 96 96 93 96 97 99 98 90 94 97 97 97 87 83 82 81 95 95
100 99 99 99 99 100 100 100 100 100 100 100 99 98 98 98 96 94 94 96 97 98 98 98 100 100 99 94 91 97 97 97 98 98 93 81 81 80